Observation data for Vigo Park on 11/09/2019      Previous  Date       Current Mesonet Observations  Soil Data  Daily Summary Page  Observations in Plain Language
KVP1 090600Z 24008KT 00/00 A3027 RMK A01 T00040004  RH  100%=      5-min Rain = 0
KVP1 090601Z 24008KT 00/00 A3027 RMK A01 T00040004  RH  100%=      5-min Rain = 0
KVP1 090602Z 24008KT 00/00 A3027 RMK A01 T00040004  RH  100%=      5-min Rain = 0
KVP1 090603Z 24008KT 00/00 A3027 RMK A01 T00030003  RH  100%=      5-min Rain = 0
KVP1 090604Z 24008KT 00/00 A3027 RMK A01 T00030003  RH  100%=      5-min Rain = 0
KVP1 090605Z 24008KT 00/00 A3027 RMK A01 T00030003  RH  100%=      5-min Rain = 0
KVP1 090606Z 24008KT 00/00 A3027 RMK A01 T00030003  RH  100%=      5-min Rain = 0
KVP1 090607Z 25008KT 00/00 A3027 RMK A01 T00020002  RH  100%=      5-min Rain = 0
KVP1 090608Z 25008KT 00/00 A3027 RMK A01 T00020002  RH  100%=      5-min Rain = 0
KVP1 090609Z 25008KT 00/00 A3027 RMK A01 T00010001  RH  100%=      5-min Rain = 0
KVP1 090610Z 25008KT 00/00 A3027 RMK A01 T00010001  RH  100%=      5-min Rain = 0
KVP1 090611Z 25008KT 00/00 A3027 RMK A01 T00010001  RH  100%=      5-min Rain = 0
KVP1 090612Z 25008KT 00/00 A3027 RMK A01 T00010001  RH  100%=      5-min Rain = 0
KVP1 090613Z 25008KT 00/00 A3027 RMK A01 T00010001  RH  100%=      5-min Rain = 0
KVP1 090614Z 25008KT 00/00 A3027 RMK A01 T00010001  RH  100%=      5-min Rain = 0
KVP1 090615Z 25008KT 00/00 A3027 RMK A01 T00020002  RH  100%=      5-min Rain = 0
KVP1 090616Z 25008KT 00/00 A3027 RMK A01 T00020002  RH  100%=      5-min Rain = 0
KVP1 090617Z 25008KT 00/00 A3027 RMK A01 T00030003  RH  100%=      5-min Rain = 0
KVP1 090618Z 25008KT 00/00 A3027 RMK A01 T00040004  RH  100%=      5-min Rain = 0
KVP1 090619Z 25008KT 00/00 A3027 RMK A01 T00040004  RH  100%=      5-min Rain = 0
KVP1 090620Z 25008KT 00/00 A3027 RMK A01 T00040004  RH  100%=      5-min Rain = 0
KVP1 090621Z 25007KT 00/00 A3027 RMK A01 T00040004  RH  100%=      5-min Rain = 0
KVP1 090622Z 25007KT 01/01 A3027 RMK A01 T00050005  RH  100%=      5-min Rain = 0
KVP1 090623Z 25008KT 01/01 A3027 RMK A01 T00050005  RH  100%=      5-min Rain = 0
KVP1 090624Z 25008KT 01/01 A3027 RMK A01 T00050005  RH  100%=      5-min Rain = 0
KVP1 090625Z 25008KT 01/01 A3027 RMK A01 T00060006  RH  100%=      5-min Rain = 0
KVP1 090626Z 25008KT 01/01 A3027 RMK A01 T00060006  RH  100%=      5-min Rain = 0
KVP1 090627Z 25008KT 01/01 A3027 RMK A01 T00060006  RH  100%=      5-min Rain = 0
KVP1 090628Z 25008KT 01/01 A3027 RMK A01 T00070007  RH  100%=      5-min Rain = 0
KVP1 090629Z 24008KT 01/01 A3027 RMK A01 T00080008  RH  100%=      5-min Rain = 0
KVP1 090630Z 24008KT 01/01 A3027 RMK A01 T00090009  RH  100%=      5-min Rain = 0
KVP1 090631Z 24008KT 01/01 A3027 RMK A01 T00100009  RH  100%=      5-min Rain = 0
KVP1 090632Z 24008KT 01/01 A3027 RMK A01 T00100010  RH  100%=      5-min Rain = 0
KVP1 090633Z 24008KT 01/01 A3027 RMK A01 T00110011  RH  100%=      5-min Rain = 0
KVP1 090634Z 24008KT 01/01 A3027 RMK A01 T00110011  RH  100%=      5-min Rain = 0
KVP1 090635Z 24007KT 01/01 A3027 RMK A01 T00120012  RH  100%=      5-min Rain = 0
KVP1 090636Z 24008KT 01/01 A3027 RMK A01 T00120012  RH  100%=      5-min Rain = 0
KVP1 090637Z 24008KT 01/01 A3027 RMK A01 T00130013  RH  100%=      5-min Rain = 0
KVP1 090638Z 24008KT 01/01 A3027 RMK A01 T00140014  RH  100%=      5-min Rain = 0
KVP1 090639Z 25008KT 01/01 A3027 RMK A01 T00140014  RH  100%=      5-min Rain = 0
KVP1 090640Z 25008KT 02/02 A3027 RMK A01 T00150015  RH  100%=      5-min Rain = 0
KVP1 090641Z 24008KT 02/02 A3027 RMK A01 T00160016  RH  100%=      5-min Rain = 0
KVP1 090642Z 25008KT 02/02 A3027 RMK A01 T00170017  RH  100%=      5-min Rain = 0
KVP1 090643Z 25007KT 02/02 A3027 RMK A01 T00160016  RH  100%=      5-min Rain = 0
KVP1 090644Z 26006KT 02/02 A3027 RMK A01 T00160016  RH  100%=      5-min Rain = 0
KVP1 090645Z 26007KT 02/02 A3027 RMK A01 T00170017  RH  100%=      5-min Rain = 0
KVP1 090646Z 26007KT 02/02 A3027 RMK A01 T00160016  RH  100%=      5-min Rain = 0
KVP1 090647Z 26007KT 02/02 A3027 RMK A01 T00160016  RH  100%=      5-min Rain = 0
KVP1 090648Z 27007KT 02/02 A3027 RMK A01 T00160016  RH  100%=      5-min Rain = 0
KVP1 090649Z 27006KT 02/02 A3027 RMK A01 T00150015  RH  100%=      5-min Rain = 0
KVP1 090650Z 27006KT 02/01 A3027 RMK A01 T00150014  RH  100%=      5-min Rain = 0
KVP1 090651Z 27007KT 01/01 A3027 RMK A01 T00140014  RH  100%=      5-min Rain = 0
KVP1 090652Z 27007KT 01/01 A3027 RMK A01 T00140014  RH  100%=      5-min Rain = 0
KVP1 090653Z 27007KT 01/01 A3027 RMK A01 T00130013  RH  100%=      5-min Rain = 0
KVP1 090654Z 27007KT 01/01 A3027 RMK A01 T00120012  RH  100%=      5-min Rain = 0
KVP1 090655Z 27007KT 01/01 A3027 RMK A01 T00120012  RH  100%=      5-min Rain = 0
KVP1 090656Z 27006KT 01/01 A3027 RMK A01 T00110011  RH  100%=      5-min Rain = 0
KVP1 090657Z 27007KT 01/01 A3027 RMK A01 T00110011  RH  100%=      5-min Rain = 0
KVP1 090658Z 27007KT 01/01 A3027 RMK A01 T00100010  RH  100%=      5-min Rain = 0
KVP1 090659Z 27007KT 01/01 A3027 RMK A01 T00100010  RH  100%=      5-min Rain = 0
KVP1 090700Z 27007KT 01/01 A3027 RMK A01 T00100010  RH  100%=      5-min Rain = 0
KVP1 090701Z 27007KT 01/01 A3027 RMK A01 T00110011  RH  100%=      5-min Rain = 0
KVP1 090702Z 26007KT 01/01 A3027 RMK A01 T00110011  RH  100%=      5-min Rain = 0
KVP1 090703Z 26007KT 01/01 A3027 RMK A01 T00110011  RH  100%=      5-min Rain = 0
KVP1 090704Z 26007KT 01/01 A3027 RMK A01 T00100010  RH  100%=      5-min Rain = 0
KVP1 090705Z 26007KT 01/01 A3027 RMK A01 T00110011  RH  100%=      5-min Rain = 0
KVP1 090706Z 27007KT 01/01 A3027 RMK A01 T00100010  RH  100%=      5-min Rain = 0
KVP1 090707Z 27007KT 01/01 A3027 RMK A01 T00100010  RH  100%=      5-min Rain = 0
KVP1 090708Z 27007KT 01/01 A3027 RMK A01 T00110011  RH  100%=      5-min Rain = 0
KVP1 090709Z 27007KT 01/01 A3027 RMK A01 T00100010  RH  100%=      5-min Rain = 0
KVP1 090710Z 27007KT 01/01 A3027 RMK A01 T00100010  RH  100%=      5-min Rain = 0
KVP1 090711Z 27007KT 01/01 A3027 RMK A01 T00100010  RH  100%=      5-min Rain = 0
KVP1 090712Z 27007KT 01/01 A3027 RMK A01 T00100010  RH  100%=      5-min Rain = 0
KVP1 090713Z 27007KT 01/01 A3027 RMK A01 T00100010  RH  100%=      5-min Rain = 0
KVP1 090714Z 27007KT 01/01 A3026 RMK A01 T00090009  RH  100%=      5-min Rain = 0
KVP1 090715Z 27007KT 01/01 A3026 RMK A01 T00090009  RH  100%=      5-min Rain = 0
KVP1 090720Z 27008KT 01/01 A3026 RMK A01 T00080008  RH  100%=      5-min Rain = 0
KVP1 090721Z 27008KT 01/01 A3026 RMK A01 T00090009  RH  100%=      5-min Rain = 0
KVP1 090722Z 27008KT 01/01 A3026 RMK A01 T00090009  RH  100%=      5-min Rain = 0
KVP1 090723Z 27008KT 01/01 A3026 RMK A01 T00100010  RH  100%=      5-min Rain = 0
KVP1 090724Z 27008KT 01/01 A3026 RMK A01 T00100010  RH  100%=      5-min Rain = 0
KVP1 090725Z 27008KT 01/01 A3026 RMK A01 T00090009  RH  100%=      5-min Rain = 0
KVP1 090726Z 27008KT 01/01 A3026 RMK A01 T00090009  RH  100%=      5-min Rain = 0
KVP1 090727Z 27008KT 01/01 A3026 RMK A01 T00090009  RH  100%=      5-min Rain = 0
KVP1 090728Z 27008KT 01/01 A3026 RMK A01 T00090009  RH  100%=      5-min Rain = 0
KVP1 090729Z 27008KT 01/01 A3026 RMK A01 T00090009  RH  100%=      5-min Rain = 0
KVP1 090730Z 27008KT 01/01 A3026 RMK A01 T00090009  RH  100%=      5-min Rain = 0
KVP1 090731Z 27008KT 01/01 A3026 RMK A01 T00090009  RH  100%=      5-min Rain = 0
KVP1 090732Z 27008KT 01/01 A3026 RMK A01 T00100009  RH  100%=      5-min Rain = 0
KVP1 090733Z 28008KT 01/01 A3026 RMK A01 T00100010  RH  100%=      5-min Rain = 0
KVP1 090734Z 28008KT 01/01 A3026 RMK A01 T00110011  RH  100%=      5-min Rain = 0
KVP1 090735Z 28008KT 01/01 A3026 RMK A01 T00110011  RH  100%=      5-min Rain = 0
KVP1 090736Z 28008KT 01/01 A3026 RMK A01 T00110011  RH  100%=      5-min Rain = 0
KVP1 090737Z 28008KT 01/01 A3026 RMK A01 T00110011  RH  100%=      5-min Rain = 0
KVP1 090738Z 28008KT 01/01 A3026 RMK A01 T00120012  RH  100%=      5-min Rain = 0
KVP1 090739Z 28008KT 01/01 A3026 RMK A01 T00120012  RH  100%=      5-min Rain = 0
KVP1 090740Z 28008KT 01/01 A3026 RMK A01 T00110011  RH  100%=      5-min Rain = 0
KVP1 090741Z 28008KT 01/01 A3026 RMK A01 T00110011  RH  100%=      5-min Rain = 0
KVP1 090742Z 28009KT 01/01 A3026 RMK A01 T00120011  RH  100%=      5-min Rain = 0
KVP1 090743Z 28009KT 01/01 A3026 RMK A01 T00110011  RH  100%=      5-min Rain = 0
KVP1 090744Z 28009KT 01/01 A3026 RMK A01 T00110011  RH  100%=      5-min Rain = 0
KVP1 090745Z 28009KT 01/01 A3026 RMK A01 T00110011  RH  100%=      5-min Rain = 0
KVP1 090746Z 28009KT 01/01 A3026 RMK A01 T00120011  RH  100%=      5-min Rain = 0
KVP1 090747Z 28009KT 01/01 A3026 RMK A01 T00120011  RH  100%=      5-min Rain = 0
KVP1 090748Z 28008KT 01/01 A3026 RMK A01 T00110011  RH  100%=      5-min Rain = 0
KVP1 090749Z 28008KT 01/01 A3025 RMK A01 T00110011  RH  100%=      5-min Rain = 0
KVP1 090750Z 28009KT 01/01 A3025 RMK A01 T00110011  RH  100%=      5-min Rain = 0
KVP1 090751Z 28009KT 01/01 A3025 RMK A01 T00110011  RH  100%=      5-min Rain = 0
KVP1 090752Z 28009KT 01/01 A3025 RMK A01 T00100010  RH  100%=      5-min Rain = 0
KVP1 090753Z 29009KT 01/01 A3025 RMK A01 T00100010  RH  100%=      5-min Rain = 0
KVP1 090754Z 29009KT 01/01 A3025 RMK A01 T00100010  RH  100%=      5-min Rain = 0
KVP1 090755Z 29009KT 01/01 A3025 RMK A01 T00100010  RH  100%=      5-min Rain = 0
KVP1 090756Z 29009KT 01/01 A3025 RMK A01 T00100010  RH  100%=      5-min Rain = 0
KVP1 090757Z 29009KT 01/01 A3025 RMK A01 T00100010  RH  100%=      5-min Rain = 0
KVP1 090758Z 28009KT 01/01 A3025 RMK A01 T00110011  RH  100%=      5-min Rain = 0
KVP1 090759Z 28009KT 01/01 A3025 RMK A01 T00110011  RH  100%=      5-min Rain = 0
KVP1 090800Z 28009KT 01/01 A3025 RMK A01 T00110011  RH  100%=      5-min Rain = 0
KVP1 090801Z 28009KT 01/01 A3025 RMK A01 T00110011  RH  100%=      5-min Rain = 0
KVP1 090802Z 28009KT 01/01 A3025 RMK A01 T00110011  RH  100%=      5-min Rain = 0
KVP1 090803Z 28009KT 01/01 A3025 RMK A01 T00110011  RH  100%=      5-min Rain = 0
KVP1 090804Z 28009KT 01/01 A3025 RMK A01 T00120012  RH  100%=      5-min Rain = 0
KVP1 090805Z 28009KT 01/01 A3025 RMK A01 T00120012  RH  100%=      5-min Rain = 0
KVP1 090806Z 28009KT 01/01 A3025 RMK A01 T00130013  RH  100%=      5-min Rain = 0
KVP1 090807Z 27009KT 01/01 A3025 RMK A01 T00140014  RH  100%=      5-min Rain = 0
KVP1 090808Z 27009KT 01/01 A3025 RMK A01 T00140014  RH  100%=      5-min Rain = 0
KVP1 090809Z 27009KT 01/01 A3025 RMK A01 T00140014  RH  100%=      5-min Rain = 0
KVP1 090810Z 27009KT 01/01 A3025 RMK A01 T00140014  RH  100%=      5-min Rain = 0
KVP1 090811Z 27009KT 01/01 A3025 RMK A01 T00140014  RH  100%=      5-min Rain = 0
KVP1 090812Z 27010KT 02/02 A3025 RMK A01 T00150015  RH  100%=      5-min Rain = 0
KVP1 090813Z 27010KT 02/02 A3025 RMK A01 T00160016  RH  100%=      5-min Rain = 0
KVP1 090814Z 27009KT 02/02 A3025 RMK A01 T00170017  RH  100%=      5-min Rain = 0
KVP1 090815Z 27009KT 02/02 A3025 RMK A01 T00170017  RH  100%=      5-min Rain = 0
KVP1 090816Z 27009KT 02/02 A3025 RMK A01 T00180018  RH  100%=      5-min Rain = 0
KVP1 090817Z 27009KT 02/02 A3025 RMK A01 T00190019  RH  100%=      5-min Rain = 0
KVP1 090818Z 27008KT 02/02 A3025 RMK A01 T00190019  RH  100%=      5-min Rain = 0
KVP1 090819Z 27008KT 02/02 A3025 RMK A01 T00190019  RH  100%=      5-min Rain = 0
KVP1 090820Z 27008KT 02/02 A3025 RMK A01 T00190019  RH  100%=      5-min Rain = 0
KVP1 090821Z 27008KT 02/02 A3025 RMK A01 T00190019  RH  100%=      5-min Rain = 0
KVP1 090822Z 27008KT 02/02 A3025 RMK A01 T00190019  RH  100%=      5-min Rain = 0
KVP1 090823Z 27007KT 02/02 A3025 RMK A01 T00190019  RH  100%=      5-min Rain = 0
KVP1 090824Z 27006KT 02/02 A3025 RMK A01 T00190019  RH  100%=      5-min Rain = 0
KVP1 090825Z 27007KT 02/02 A3025 RMK A01 T00190019  RH  100%=      5-min Rain = 0
KVP1 090826Z 27007KT 02/02 A3025 RMK A01 T00180018  RH  100%=      5-min Rain = 0
KVP1 090827Z 27007KT 02/02 A3025 RMK A01 T00190019  RH  100%=      5-min Rain = 0
KVP1 090828Z 27008KT 02/02 A3025 RMK A01 T00180018  RH  100%=      5-min Rain = 0
KVP1 090829Z 27007KT 02/02 A3025 RMK A01 T00180018  RH  100%=      5-min Rain = 0
KVP1 090830Z 27008KT 02/02 A3025 RMK A01 T00180018  RH  100%=      5-min Rain = 0
KVP1 090831Z 27008KT 02/02 A3025 RMK A01 T00180018  RH  100%=      5-min Rain = 0
KVP1 090832Z 27008KT 02/02 A3024 RMK A01 T00170017  RH  100%=      5-min Rain = 0
KVP1 090833Z 26008KT 02/02 A3024 RMK A01 T00180018  RH  100%=      5-min Rain = 0
KVP1 090834Z 26009KT 02/02 A3024 RMK A01 T00180018  RH  100%=      5-min Rain = 0
KVP1 090835Z 26008KT 02/02 A3024 RMK A01 T00190019  RH  100%=      5-min Rain = 0
KVP1 090836Z 27008KT 02/02 A3024 RMK A01 T00190019  RH  100%=      5-min Rain = 0
KVP1 090837Z 26008KT 02/02 A3024 RMK A01 T00190019  RH  100%=      5-min Rain = 0
KVP1 090838Z 27007KT 02/02 A3024 RMK A01 T00190019  RH  100%=      5-min Rain = 0
KVP1 090839Z 27007KT 02/02 A3024 RMK A01 T00190019  RH  100%=      5-min Rain = 0
KVP1 090840Z 27006KT 02/02 A3024 RMK A01 T00190019  RH  100%=      5-min Rain = 0
KVP1 090841Z 27006KT 02/02 A3024 RMK A01 T00190019  RH  100%=      5-min Rain = 0
KVP1 090842Z 27006KT 02/02 A3024 RMK A01 T00180018  RH  100%=      5-min Rain = 0
KVP1 090843Z 27006KT 02/02 A3024 RMK A01 T00180018  RH  100%=      5-min Rain = 0
KVP1 090844Z 27006KT 02/02 A3024 RMK A01 T00170017  RH  100%=      5-min Rain = 0
KVP1 090845Z 27007KT 02/02 A3024 RMK A01 T00170017  RH  100%=      5-min Rain = 0
KVP1 090846Z 27007KT 02/02 A3024 RMK A01 T00160016  RH  100%=      5-min Rain = 0
KVP1 090847Z 27007KT 02/02 A3024 RMK A01 T00160016  RH  100%=      5-min Rain = 0
KVP1 090848Z 27007KT 02/02 A3024 RMK A01 T00160015  RH  100%=      5-min Rain = 0
KVP1 090849Z 27007KT 02/02 A3024 RMK A01 T00150015  RH  100%=      5-min Rain = 0
KVP1 090850Z 27007KT 02/02 A3024 RMK A01 T00150015  RH  100%=      5-min Rain = 0
KVP1 090851Z 27007KT 02/02 A3024 RMK A01 T00150015  RH  100%=      5-min Rain = 0
KVP1 090852Z 28008KT 02/02 A3024 RMK A01 T00150015  RH  100%=      5-min Rain = 0
KVP1 090853Z 28007KT 01/01 A3024 RMK A01 T00140014  RH  100%=      5-min Rain = 0
KVP1 090854Z 28008KT 02/02 A3024 RMK A01 T00150015  RH  100%=      5-min Rain = 0
KVP1 090855Z 28008KT 02/02 A3024 RMK A01 T00150015  RH  100%=      5-min Rain = 0
KVP1 090856Z 28008KT 02/02 A3024 RMK A01 T00150015  RH  100%=      5-min Rain = 0
KVP1 090857Z 28008KT 02/02 A3024 RMK A01 T00150015  RH  100%=      5-min Rain = 0
KVP1 090858Z 28008KT 02/02 A3024 RMK A01 T00150015  RH  100%=      5-min Rain = 0
KVP1 090859Z 28008KT 01/01 A3024 RMK A01 T00140014  RH  100%=      5-min Rain = 0
KVP1 090900Z 28008KT 01/01 A3024 RMK A01 T00130013  RH  100%=      5-min Rain = 0
KVP1 090901Z 28009KT 01/01 A3024 RMK A01 T00130013  RH  100%=      5-min Rain = 0
KVP1 090902Z 28009KT 01/01 A3023 RMK A01 T00130013  RH  100%=      5-min Rain = 0
KVP1 090903Z 28009KT 01/01 A3023 RMK A01 T00130013  RH  100%=      5-min Rain = 0
KVP1 090904Z 28009KT 01/01 A3023 RMK A01 T00130013  RH  100%=      5-min Rain = 0
KVP1 090905Z 28009KT 01/01 A3023 RMK A01 T00130013  RH  100%=      5-min Rain = 0
KVP1 090906Z 28009KT 01/01 A3023 RMK A01 T00140014  RH  100%=      5-min Rain = 0
KVP1 090907Z 28009KT 01/01 A3023 RMK A01 T00140014  RH  100%=      5-min Rain = 0
KVP1 090908Z 29009KT 01/01 A3023 RMK A01 T00140014  RH  100%=      5-min Rain = 0
KVP1 090909Z 29008KT 01/01 A3023 RMK A01 T00130013  RH  100%=      5-min Rain = 0
KVP1 090910Z 29008KT 01/01 A3023 RMK A01 T00130013  RH  100%=      5-min Rain = 0
KVP1 090911Z 29008KT 01/01 A3023 RMK A01 T00120012  RH  100%=      5-min Rain = 0
KVP1 090912Z 29008KT 01/01 A3023 RMK A01 T00130013  RH  100%=      5-min Rain = 0
KVP1 090913Z 29008KT 01/01 A3023 RMK A01 T00120012  RH  100%=      5-min Rain = 0
KVP1 090914Z 29008KT 01/01 A3023 RMK A01 T00120012  RH  100%=      5-min Rain = 0
KVP1 090915Z 28008KT 01/01 A3023 RMK A01 T00110011  RH  100%=      5-min Rain = 0
KVP1 090916Z 28007KT 01/01 A3023 RMK A01 T00110011  RH  100%=      5-min Rain = 0
KVP1 090917Z 28007KT 01/01 A3023 RMK A01 T00100010  RH  100%=      5-min Rain = 0
KVP1 090918Z 28007KT 01/01 A3023 RMK A01 T00090009  RH  100%=      5-min Rain = 0
KVP1 090919Z 27007KT 01/01 A3023 RMK A01 T00090009  RH  100%=      5-min Rain = 0
KVP1 090920Z 27007KT 01/01 A3023 RMK A01 T00090009  RH  100%=      5-min Rain = 0
KVP1 090921Z 27007KT 01/01 A3023 RMK A01 T00080008  RH  100%=      5-min Rain = 0
KVP1 090922Z 27007KT 01/01 A3023 RMK A01 T00070007  RH  100%=      5-min Rain = 0
KVP1 090923Z 26008KT 01/01 A3023 RMK A01 T00060006  RH  100%=      5-min Rain = 0
KVP1 090924Z 26008KT 01/01 A3023 RMK A01 T00060006  RH  100%=      5-min Rain = 0
KVP1 090925Z 26008KT 01/01 A3023 RMK A01 T00060006  RH  100%=      5-min Rain = 0
KVP1 090926Z 26008KT 01/01 A3023 RMK A01 T00060006  RH  100%=      5-min Rain = 0
KVP1 090927Z 26008KT 01/01 A3023 RMK A01 T00070007  RH  100%=      5-min Rain = 0
KVP1 090928Z 26008KT 01/01 A3023 RMK A01 T00070007  RH  100%=      5-min Rain = 0
KVP1 090929Z 26008KT 01/01 A3023 RMK A01 T00080008  RH  100%=      5-min Rain = 0
KVP1 090930Z 26008KT 01/01 A3023 RMK A01 T00080008  RH  100%=      5-min Rain = 0
KVP1 090931Z 26007KT 01/01 A3023 RMK A01 T00080008  RH  100%=      5-min Rain = 0
KVP1 090932Z 27007KT 01/01 A3023 RMK A01 T00080008  RH  100%=      5-min Rain = 0
KVP1 090933Z 27007KT 01/01 A3023 RMK A01 T00080008  RH  100%=      5-min Rain = 0
KVP1 090934Z 27007KT 01/01 A3023 RMK A01 T00090009  RH  100%=      5-min Rain = 0
KVP1 090935Z 27007KT 01/01 A3023 RMK A01 T00090009  RH  100%=      5-min Rain = 0
KVP1 090936Z 27007KT 01/01 A3022 RMK A01 T00090009  RH  100%=      5-min Rain = 0
KVP1 090937Z 26007KT 01/01 A3022 RMK A01 T00090009  RH  100%=      5-min Rain = 0
KVP1 090938Z 26007KT 01/01 A3022 RMK A01 T00090009  RH  100%=      5-min Rain = 0
KVP1 090939Z 26007KT 01/01 A3022 RMK A01 T00090009  RH  100%=      5-min Rain = 0
KVP1 090940Z 26007KT 01/01 A3022 RMK A01 T00090009  RH  100%=      5-min Rain = 0
KVP1 090941Z 26007KT 01/01 A3022 RMK A01 T00090009  RH  100%=      5-min Rain = 0
KVP1 090942Z 26008KT 01/01 A3022 RMK A01 T00090009  RH  100%=      5-min Rain = 0
KVP1 090943Z 26008KT 01/01 A3022 RMK A01 T00090009  RH  100%=      5-min Rain = 0
KVP1 090944Z 26008KT 01/01 A3022 RMK A01 T00100010  RH  100%=      5-min Rain = 0
KVP1 090945Z 27008KT 01/01 A3022 RMK A01 T00110011  RH  100%=      5-min Rain = 0
KVP1 090946Z 27009KT 01/01 A3021 RMK A01 T00110011  RH  100%=      5-min Rain = 0
KVP1 090947Z 27008KT 01/01 A3021 RMK A01 T00120012  RH  100%=      5-min Rain = 0
KVP1 090948Z 27008KT 01/01 A3021 RMK A01 T00120012  RH  100%=      5-min Rain = 0
KVP1 090949Z 27008KT 01/01 A3021 RMK A01 T00120012  RH  100%=      5-min Rain = 0
KVP1 090950Z 27007KT 01/01 A3021 RMK A01 T00120012  RH  100%=      5-min Rain = 0
KVP1 090951Z 27007KT 01/01 A3021 RMK A01 T00130012  RH  100%=      5-min Rain = 0
KVP1 090952Z 28007KT 01/01 A3021 RMK A01 T00120012  RH  100%=      5-min Rain = 0
KVP1 090953Z 28008KT 01/01 A3022 RMK A01 T00120012  RH  100%=      5-min Rain = 0
KVP1 090954Z 28008KT 01/01 A3022 RMK A01 T00110011  RH  100%=      5-min Rain = 0
KVP1 090955Z 29007KT 01/01 A3022 RMK A01 T00110011  RH  100%=      5-min Rain = 0
KVP1 090956Z 29007KT 01/01 A3022 RMK A01 T00110011  RH  100%=      5-min Rain = 0
KVP1 090957Z 29007KT 01/01 A3022 RMK A01 T00120012  RH  100%=      5-min Rain = 0
KVP1 090958Z 29007KT 01/01 A3022 RMK A01 T00120012  RH  100%=      5-min Rain = 0
KVP1 090959Z 28007KT 01/01 A3022 RMK A01 T00130013  RH  100%=      5-min Rain = 0
KVP1 091000Z 28007KT 01/01 A3022 RMK A01 T00120012  RH  100%=      5-min Rain = 0
KVP1 091001Z 28008KT 01/01 A3022 RMK A01 T00120012  RH  100%=      5-min Rain = 0
KVP1 091002Z 28008KT 01/01 A3022 RMK A01 T00120012  RH  100%=      5-min Rain = 0
KVP1 091003Z 28008KT 01/01 A3022 RMK A01 T00120012  RH  100%=      5-min Rain = 0
KVP1 091004Z 28008KT 01/01 A3022 RMK A01 T00120012  RH  100%=      5-min Rain = 0
KVP1 091005Z 28008KT 01/01 A3021 RMK A01 T00130013  RH  100%=      5-min Rain = 0
KVP1 091006Z 28008KT 01/01 A3021 RMK A01 T00140014  RH  100%=      5-min Rain = 0
KVP1 091007Z 27008KT 01/01 A3021 RMK A01 T00140014  RH  100%=      5-min Rain = 0
KVP1 091008Z 27008KT 01/01 A3021 RMK A01 T00140014  RH  100%=      5-min Rain = 0
KVP1 091009Z 27008KT 01/01 A3021 RMK A01 T00140014  RH  100%=      5-min Rain = 0
KVP1 091010Z 27008KT 02/02 A3021 RMK A01 T00150015  RH  100%=      5-min Rain = 0
KVP1 091011Z 28009KT 02/02 A3021 RMK A01 T00150015  RH  100%=      5-min Rain = 0
KVP1 091012Z 28009KT 02/02 A3021 RMK A01 T00150015  RH  100%=      5-min Rain = 0
KVP1 091013Z 28008KT 02/02 A3021 RMK A01 T00150015  RH  100%=      5-min Rain = 0
KVP1 091014Z 28009KT 02/02 A3021 RMK A01 T00160016  RH  100%=      5-min Rain = 0
KVP1 091015Z 28009KT 02/02 A3021 RMK A01 T00160016  RH  100%=      5-min Rain = 0
KVP1 091016Z 28009KT 02/02 A3021 RMK A01 T00160016  RH  100%=      5-min Rain = 0
KVP1 091017Z 28008KT 02/02 A3021 RMK A01 T00160016  RH  100%=      5-min Rain = 0
KVP1 091018Z 28008KT 02/02 A3021 RMK A01 T00160016  RH  100%=      5-min Rain = 0
KVP1 091019Z 27007KT 02/02 A3021 RMK A01 T00170016  RH  100%=      5-min Rain = 0
KVP1 091020Z 27007KT 02/02 A3021 RMK A01 T00170016  RH  099%=      5-min Rain = 0
KVP1 091021Z 27007KT 02/02 A3021 RMK A01 T00170015  RH  099%=      5-min Rain = 0
KVP1 091022Z 27006KT 02/01 A3021 RMK A01 T00170014  RH  098%=      5-min Rain = 0
KVP1 091023Z 26007KT 02/01 A3021 RMK A01 T00160013  RH  098%=      5-min Rain = 0
KVP1 091024Z 26007KT 02/01 A3021 RMK A01 T00150011  RH  097%=      5-min Rain = 0
KVP1 091025Z 26008KT 01/01 A3021 RMK A01 T00130009  RH  097%=      5-min Rain = 0
KVP1 091026Z 26008KT 01/01 A3021 RMK A01 T00120008  RH  097%=      5-min Rain = 0
KVP1 091027Z 27008KT 01/01 A3021 RMK A01 T00110007  RH  097%=      5-min Rain = 0
KVP1 091028Z 27008KT 01/01 A3021 RMK A01 T00110007  RH  098%=      5-min Rain = 0
KVP1 091029Z 27009KT 01/01 A3021 RMK A01 T00100007  RH  098%=      5-min Rain = 0
KVP1 091030Z 27008KT 01/01 A3021 RMK A01 T00100008  RH  098%=      5-min Rain = 0
KVP1 091031Z 27008KT 01/01 A3021 RMK A01 T00100008  RH  099%=      5-min Rain = 0
KVP1 091032Z 27008KT 01/01 A3021 RMK A01 T00090008  RH  099%=      5-min Rain = 0
KVP1 091033Z 27008KT 01/01 A3021 RMK A01 T00100009  RH  100%=      5-min Rain = 0
KVP1 091034Z 27008KT 01/01 A3021 RMK A01 T00100009  RH  100%=      5-min Rain = 0
KVP1 091035Z 27007KT 01/01 A3021 RMK A01 T00090008  RH  099%=      5-min Rain = 0
KVP1 091036Z 27007KT 01/01 A3021 RMK A01 T00080007  RH  099%=      5-min Rain = 0
KVP1 091037Z 27007KT 01/01 A3021 RMK A01 T00080007  RH  099%=      5-min Rain = 0
KVP1 091038Z 27007KT 01/01 A3021 RMK A01 T00080008  RH  100%=      5-min Rain = 0
KVP1 091039Z 27007KT 01/01 A3021 RMK A01 T00080007  RH  100%=      5-min Rain = 0
KVP1 091040Z 27007KT 01/01 A3021 RMK A01 T00070007  RH  100%=      5-min Rain = 0
KVP1 091041Z 27008KT 01/01 A3021 RMK A01 T00070007  RH  100%=      5-min Rain = 0
KVP1 091042Z 27008KT 01/01 A3021 RMK A01 T00070007  RH  100%=      5-min Rain = 0
KVP1 091043Z 27008KT 01/01 A3021 RMK A01 T00080008  RH  100%=      5-min Rain = 0
KVP1 091044Z 28007KT 01/01 A3021 RMK A01 T00080008  RH  100%=      5-min Rain = 0
KVP1 091045Z 28007KT 01/01 A3021 RMK A01 T00090009  RH  100%=      5-min Rain = 0
KVP1 091046Z 28008KT 01/01 A3021 RMK A01 T00100010  RH  100%=      5-min Rain = 0
KVP1 091047Z 28008KT 01/01 A3021 RMK A01 T00100010  RH  100%=      5-min Rain = 0
KVP1 091048Z 28008KT 01/01 A3021 RMK A01 T00100010  RH  100%=      5-min Rain = 0
KVP1 091049Z 28008KT 01/01 A3021 RMK A01 T00110011  RH  100%=      5-min Rain = 0
KVP1 091050Z 28008KT 01/01 A3021 RMK A01 T00110011  RH  100%=      5-min Rain = 0
KVP1 091051Z 28008KT 01/01 A3021 RMK A01 T00120012  RH  100%=      5-min Rain = 0
KVP1 091052Z 28008KT 01/01 A3021 RMK A01 T00120012  RH  100%=      5-min Rain = 0
KVP1 091053Z 28008KT 01/01 A3021 RMK A01 T00120012  RH  100%=      5-min Rain = 0
KVP1 091054Z 29008KT 01/01 A3021 RMK A01 T00120012  RH  100%=      5-min Rain = 0
KVP1 091055Z 28008KT 01/01 A3021 RMK A01 T00120012  RH  100%=      5-min Rain = 0
KVP1 091056Z 28008KT 01/01 A3021 RMK A01 T00120011  RH  100%=      5-min Rain = 0
KVP1 091057Z 28009KT 01/01 A3021 RMK A01 T00120011  RH  099%=      5-min Rain = 0
KVP1 091058Z 28009KT 01/01 A3021 RMK A01 T00120011  RH  099%=      5-min Rain = 0
KVP1 091059Z 28009KT 01/01 A3021 RMK A01 T00120012  RH  100%=      5-min Rain = 0
KVP1 091100Z 28008KT 01/01 A3021 RMK A01 T00130013  RH  100%=      5-min Rain = 0
KVP1 091101Z 28009KT 01/01 A3021 RMK A01 T00140014  RH  100%=      5-min Rain = 0
KVP1 091102Z 28008KT 02/02 A3021 RMK A01 T00150015  RH  100%=      5-min Rain = 0
KVP1 091103Z 28008KT 02/02 A3021 RMK A01 T00160015  RH  100%=      5-min Rain = 0
KVP1 091104Z 28009KT 02/02 A3021 RMK A01 T00160015  RH  099%=      5-min Rain = 0
KVP1 091105Z 28008KT 02/01 A3021 RMK A01 T00160014  RH  098%=      5-min Rain = 0
KVP1 091106Z 28008KT 02/01 A3021 RMK A01 T00160013  RH  098%=      5-min Rain = 0
KVP1 091107Z 28008KT 02/01 A3021 RMK A01 T00160013  RH  098%=      5-min Rain = 0
KVP1 091108Z 29008KT 02/01 A3021 RMK A01 T00150012  RH  097%=      5-min Rain = 0
KVP1 091109Z 29008KT 02/01 A3021 RMK A01 T00150011  RH  097%=      5-min Rain = 0
KVP1 091110Z 29008KT 02/01 A3021 RMK A01 T00150011  RH  097%=      5-min Rain = 0
KVP1 091111Z 29008KT 02/01 A3021 RMK A01 T00150012  RH  098%=      5-min Rain = 0
KVP1 091112Z 29008KT 02/01 A3021 RMK A01 T00150012  RH  098%=      5-min Rain = 0
KVP1 091113Z 29008KT 02/01 A3021 RMK A01 T00150012  RH  098%=      5-min Rain = 0
KVP1 091114Z 29009KT 02/01 A3021 RMK A01 T00150012  RH  098%=      5-min Rain = 0
KVP1 091115Z 29009KT 02/01 A3021 RMK A01 T00160012  RH  098%=      5-min Rain = 0
KVP1 091116Z 29009KT 02/01 A3021 RMK A01 T00160013  RH  098%=      5-min Rain = 0
KVP1 091117Z 29009KT 02/01 A3021 RMK A01 T00160013  RH  098%=      5-min Rain = 0
KVP1 091118Z 29009KT 02/01 A3021 RMK A01 T00170013  RH  098%=      5-min Rain = 0
KVP1 091119Z 28009KT 02/01 A3021 RMK A01 T00170014  RH  098%=      5-min Rain = 0
KVP1 091120Z 28009KT 02/01 A3021 RMK A01 T00180014  RH  097%=      5-min Rain = 0
KVP1 091121Z 28009KT 02/02 A3021 RMK A01 T00190015  RH  097%=      5-min Rain = 0
KVP1 091122Z 28008KT 02/02 A3021 RMK A01 T00190015  RH  097%=      5-min Rain = 0
KVP1 091123Z 29009KT 02/01 A3021 RMK A01 T00190014  RH  097%=      5-min Rain = 0
KVP1 091124Z 29008KT 02/01 A3021 RMK A01 T00190014  RH  097%=      5-min Rain = 0
KVP1 091125Z 28008KT 02/01 A3021 RMK A01 T00190014  RH  097%=      5-min Rain = 0
KVP1 091126Z 29009KT 02/01 A3021 RMK A01 T00190014  RH  097%=      5-min Rain = 0
KVP1 091127Z 29009KT 02/01 A3021 RMK A01 T00190014  RH  097%=      5-min Rain = 0
KVP1 091128Z 29009KT 02/01 A3021 RMK A01 T00190014  RH  096%=      5-min Rain = 0
KVP1 091129Z 29008KT 02/01 A3022 RMK A01 T00190014  RH  096%=      5-min Rain = 0
KVP1 091130Z 29008KT 02/01 A3022 RMK A01 T00200014  RH  096%=      5-min Rain = 0
KVP1 091131Z 29008KT 02/02 A3022 RMK A01 T00200015  RH  097%=      5-min Rain = 0
KVP1 091132Z 29008KT 02/02 A3022 RMK A01 T00210016  RH  097%=      5-min Rain = 0
KVP1 091133Z 29008KT 02/02 A3022 RMK A01 T00200015  RH  096%=      5-min Rain = 0
KVP1 091134Z 29008KT 02/02 A3022 RMK A01 T00210015  RH  096%=      5-min Rain = 0
KVP1 091135Z 29008KT 02/02 A3022 RMK A01 T00210015  RH  096%=      5-min Rain = 0
KVP1 091136Z 29008KT 02/02 A3022 RMK A01 T00200015  RH  096%=      5-min Rain = 0
KVP1 091137Z 28008KT 02/02 A3022 RMK A01 T00200015  RH  096%=      5-min Rain = 0
KVP1 091138Z 28008KT 02/01 A3022 RMK A01 T00200014  RH  096%=      5-min Rain = 0
KVP1 091139Z 28008KT 02/01 A3022 RMK A01 T00200014  RH  096%=      5-min Rain = 0
KVP1 091140Z 28008KT 02/01 A3022 RMK A01 T00200014  RH  096%=      5-min Rain = 0
KVP1 091141Z 28009KT 02/01 A3022 RMK A01 T00190014  RH  096%=      5-min Rain = 0
KVP1 091142Z 28009KT 02/01 A3022 RMK A01 T00190014  RH  097%=      5-min Rain = 0
KVP1 091143Z 28009KT 02/01 A3022 RMK A01 T00190014  RH  097%=      5-min Rain = 0
KVP1 091144Z 28009KT 02/01 A3022 RMK A01 T00190014  RH  097%=      5-min Rain = 0
KVP1 091145Z 28009KT 02/01 A3022 RMK A01 T00190014  RH  097%=      5-min Rain = 0
KVP1 091146Z 28009KT 02/02 A3022 RMK A01 T00190015  RH  097%=      5-min Rain = 0
KVP1 091147Z 28009KT 02/02 A3022 RMK A01 T00200015  RH  097%=      5-min Rain = 0
KVP1 091148Z 28009KT 02/02 A3022 RMK A01 T00200015  RH  097%=      5-min Rain = 0
KVP1 091149Z 28009KT 02/02 A3022 RMK A01 T00190015  RH  097%=      5-min Rain = 0
KVP1 091150Z 28008KT 02/02 A3022 RMK A01 T00190015  RH  097%=      5-min Rain = 0
KVP1 091151Z 28009KT 02/01 A3022 RMK A01 T00190014  RH  097%=      5-min Rain = 0
KVP1 091152Z 28008KT 02/02 A3022 RMK A01 T00190015  RH  097%=      5-min Rain = 0
KVP1 091153Z 28007KT 02/01 A3022 RMK A01 T00190014  RH  096%=      5-min Rain = 0
KVP1 091154Z 28006KT 02/01 A3022 RMK A01 T00190013  RH  096%=      5-min Rain = 0
KVP1 091155Z 28006KT 02/01 A3022 RMK A01 T00180013  RH  096%=      5-min Rain = 0
KVP1 091156Z 28007KT 02/01 A3022 RMK A01 T00170012  RH  096%=      5-min Rain = 0
KVP1 091157Z 28006KT 02/01 A3022 RMK A01 T00160011  RH  096%=      5-min Rain = 0
KVP1 091158Z 28007KT 02/01 A3022 RMK A01 T00160011  RH  097%=      5-min Rain = 0
KVP1 091159Z 28007KT 02/01 A3022 RMK A01 T00160011  RH  097%=      5-min Rain = 0
KVP1 091200Z 28007KT 02/01 A3022 RMK A01 T00150011  RH  097%=      5-min Rain = 0
KVP1 091201Z 28007KT 02/01 A3022 RMK A01 T00150011  RH  097%=      5-min Rain = 0
KVP1 091202Z 28008KT 02/01 A3022 RMK A01 T00150011  RH  097%=      5-min Rain = 0
KVP1 091203Z 28008KT 01/01 A3022 RMK A01 T00140010  RH  097%=      5-min Rain = 0
KVP1 091204Z 28008KT 01/01 A3022 RMK A01 T00140010  RH  097%=      5-min Rain = 0
KVP1 091205Z 28008KT 01/01 A3022 RMK A01 T00140010  RH  097%=      5-min Rain = 0
KVP1 091206Z 28008KT 01/01 A3022 RMK A01 T00140010  RH  098%=      5-min Rain = 0
KVP1 091207Z 28008KT 01/01 A3022 RMK A01 T00140011  RH  098%=      5-min Rain = 0
KVP1 091208Z 28008KT 01/01 A3022 RMK A01 T00140011  RH  098%=      5-min Rain = 0
KVP1 091209Z 28008KT 01/01 A3022 RMK A01 T00140011  RH  098%=      5-min Rain = 0
KVP1 091210Z 28008KT 01/01 A3022 RMK A01 T00140011  RH  098%=      5-min Rain = 0
KVP1 091211Z 28008KT 01/01 A3022 RMK A01 T00140012  RH  098%=      5-min Rain = 0
KVP1 091212Z 28008KT 01/01 A3022 RMK A01 T00140011  RH  098%=      5-min Rain = 0
KVP1 091213Z 28008KT 01/01 A3022 RMK A01 T00140011  RH  098%=      5-min Rain = 0
KVP1 091214Z 28007KT 01/01 A3022 RMK A01 T00140011  RH  098%=      5-min Rain = 0
KVP1 091215Z 28007KT 01/01 A3022 RMK A01 T00130010  RH  098%=      5-min Rain = 0
KVP1 091216Z 28007KT 01/01 A3022 RMK A01 T00130010  RH  098%=      5-min Rain = 0
KVP1 091217Z 28008KT 01/01 A3022 RMK A01 T00130010  RH  098%=      5-min Rain = 0
KVP1 091218Z 28008KT 01/01 A3022 RMK A01 T00130011  RH  098%=      5-min Rain = 0
KVP1 091219Z 28007KT 01/01 A3022 RMK A01 T00130011  RH  099%=      5-min Rain = 0
KVP1 091220Z 28008KT 01/01 A3022 RMK A01 T00130011  RH  098%=      5-min Rain = 0
KVP1 091221Z 28008KT 01/01 A3022 RMK A01 T00130011  RH  098%=      5-min Rain = 0
KVP1 091222Z 28008KT 01/01 A3022 RMK A01 T00130011  RH  098%=      5-min Rain = 0
KVP1 091223Z 28008KT 01/01 A3022 RMK A01 T00130011  RH  098%=      5-min Rain = 0
KVP1 091224Z 28008KT 01/01 A3022 RMK A01 T00130011  RH  099%=      5-min Rain = 0
KVP1 091225Z 28008KT 01/01 A3022 RMK A01 T00130012  RH  099%=      5-min Rain = 0
KVP1 091226Z 28008KT 01/01 A3022 RMK A01 T00130012  RH  099%=      5-min Rain = 0
KVP1 091227Z 28008KT 01/01 A3022 RMK A01 T00140012  RH  099%=      5-min Rain = 0
KVP1 091228Z 28008KT 01/01 A3022 RMK A01 T00140012  RH  099%=      5-min Rain = 0
KVP1 091229Z 28008KT 01/01 A3022 RMK A01 T00140013  RH  099%=      5-min Rain = 0
KVP1 091230Z 28008KT 02/01 A3022 RMK A01 T00150013  RH  099%=      5-min Rain = 0
KVP1 091231Z 28008KT 02/01 A3022 RMK A01 T00150013  RH  099%=      5-min Rain = 0
KVP1 091232Z 28008KT 02/01 A3022 RMK A01 T00150013  RH  099%=      5-min Rain = 0
KVP1 091233Z 28008KT 02/01 A3022 RMK A01 T00150013  RH  098%=      5-min Rain = 0
KVP1 091234Z 28007KT 02/01 A3022 RMK A01 T00160013  RH  098%=      5-min Rain = 0
KVP1 091235Z 28007KT 02/01 A3022 RMK A01 T00160012  RH  098%=      5-min Rain = 0
KVP1 091236Z 28007KT 02/01 A3022 RMK A01 T00160012  RH  098%=      5-min Rain = 0
KVP1 091237Z 28007KT 02/01 A3022 RMK A01 T00150012  RH  097%=      5-min Rain = 0
KVP1 091238Z 28007KT 02/01 A3022 RMK A01 T00150011  RH  097%=      5-min Rain = 0
KVP1 091239Z 28007KT 02/01 A3022 RMK A01 T00150011  RH  097%=      5-min Rain = 0
KVP1 091240Z 28007KT 02/01 A3022 RMK A01 T00150011  RH  097%=      5-min Rain = 0
KVP1 091241Z 28007KT 02/01 A3022 RMK A01 T00150011  RH  097%=      5-min Rain = 0
KVP1 091242Z 28006KT 02/01 A3022 RMK A01 T00150011  RH  097%=      5-min Rain = 0
KVP1 091243Z 27006KT 01/01 A3023 RMK A01 T00140010  RH  097%=      5-min Rain = 0
KVP1 091244Z 27007KT 01/01 A3023 RMK A01 T00140010  RH  097%=      5-min Rain = 0
KVP1 091245Z 27007KT 01/01 A3023 RMK A01 T00140010  RH  097%=      5-min Rain = 0
KVP1 091246Z 27006KT 01/01 A3023 RMK A01 T00130010  RH  097%=      5-min Rain = 0
KVP1 091247Z 28006KT 01/01 A3023 RMK A01 T00130009  RH  097%=      5-min Rain = 0
KVP1 091248Z 28007KT 01/01 A3023 RMK A01 T00120008  RH  097%=      5-min Rain = 0
KVP1 091249Z 28006KT 01/01 A3023 RMK A01 T00120008  RH  098%=      5-min Rain = 0
KVP1 091250Z 27006KT 01/01 A3023 RMK A01 T00110008  RH  098%=      5-min Rain = 0
KVP1 091251Z 26005KT 01/01 A3023 RMK A01 T00100006  RH  097%=      5-min Rain = 0
KVP1 091252Z 26005KT 01/00 A3023 RMK A01 T00080003  RH  096%=      5-min Rain = 0
KVP1 091253Z 27006KT 01/00 A3023 RMK A01 T000600-0  RH  096%=      5-min Rain = 0
KVP1 091254Z 28006KT 00/M00 A3023 RMK A01 T00041001  RH  096%=      5-min Rain = 0
KVP1 091255Z 28007KT 00/00 A3023 RMK A01 T000400-0  RH  097%=      5-min Rain = 0
KVP1 091256Z 28007KT 00/00 A3023 RMK A01 T00040001  RH  098%=      5-min Rain = 0
KVP1 091257Z 29007KT 00/00 A3023 RMK A01 T00040002  RH  099%=      5-min Rain = 0
KVP1 091258Z 28007KT 00/00 A3023 RMK A01 T00040003  RH  099%=      5-min Rain = 0
KVP1 091259Z 28006KT 00/00 A3023 RMK A01 T00040003  RH  099%=      5-min Rain = 0
KVP1 091300Z 28006KT 00/00 A3023 RMK A01 T00040003  RH  099%=      5-min Rain = 0
KVP1 091301Z 27005KT 00/00 A3023 RMK A01 T00040002  RH  099%=      5-min Rain = 0
KVP1 091302Z 28005KT 00/00 A3023 RMK A01 T00030001  RH  099%=      5-min Rain = 0
KVP1 091303Z 28005KT 00/00 A3023 RMK A01 T000200-0  RH  099%=      5-min Rain = 0
KVP1 091304Z 28006KT 00/M00 A3023 RMK A01 T00011001  RH  099%=      5-min Rain = 0
KVP1 091305Z 28006KT 00/00 A3023 RMK A01 T000100-0  RH  099%=      5-min Rain = 0
KVP1 091306Z 29006KT 00/00 A3023 RMK A01 T00010000  RH  100%=      5-min Rain = 0
KVP1 091307Z 28006KT 00/00 A3023 RMK A01 T00000000  RH  100%=      5-min Rain = 0
KVP1 091308Z 28006KT 00/00 A3023 RMK A01 T00010001  RH  100%=      5-min Rain = 0
KVP1 091309Z 28006KT 00/00 A3023 RMK A01 T00000000  RH  100%=      5-min Rain = 0
KVP1 091310Z 27006KT 00/00 A3023 RMK A01 T00000000  RH  100%=      5-min Rain = 0
KVP1 091311Z 27006KT 00/00 A3023 RMK A01 T00000000  RH  100%=      5-min Rain = 0
KVP1 091312Z 27006KT M00/M00 A3023 RMK A01 T10011001  RH  100%=      5-min Rain = 0
KVP1 091313Z 28006KT M00/M00 A3023 RMK A01 T10011002  RH  100%=      5-min Rain = 0
KVP1 091314Z 28006KT M00/M00 A3023 RMK A01 T10021002  RH  100%=      5-min Rain = 0
KVP1 091315Z 28007KT M00/M00 A3023 RMK A01 T10021002  RH  100%=      5-min Rain = 0
KVP1 091316Z 28007KT M00/M00 A3023 RMK A01 T10021002  RH  100%=      5-min Rain = 0
KVP1 091317Z 28007KT M00/M00 A3023 RMK A01 T10011001  RH  100%=      5-min Rain = 0
KVP1 091318Z 28007KT M00/M00 A3023 RMK A01 T10011001  RH  100%=      5-min Rain = 0
KVP1 091319Z 28007KT M00/M00 A3023 RMK A01 T10011001  RH  100%=      5-min Rain = 0
KVP1 091320Z 28007KT M00/M00 A3023 RMK A01 T10011001  RH  100%=      5-min Rain = 0
KVP1 091321Z 28007KT 00/00 A3023 RMK A01 T00-000-0  RH  100%=      5-min Rain = 0
KVP1 091322Z 28007KT 00/00 A3023 RMK A01 T00-000-0  RH  100%=      5-min Rain = 0
KVP1 091323Z 28007KT 00/00 A3023 RMK A01 T00-000-0  RH  100%=      5-min Rain = 0
KVP1 091324Z 28007KT 00/00 A3023 RMK A01 T00-000-0  RH  100%=      5-min Rain = 0
KVP1 091325Z 28007KT 00/00 A3023 RMK A01 T00-000-0  RH  100%=      5-min Rain = 0
KVP1 091326Z 28007KT 00/00 A3023 RMK A01 T00-000-0  RH  100%=      5-min Rain = 0
KVP1 091327Z 28007KT 00/00 A3023 RMK A01 T00-000-0  RH  100%=      5-min Rain = 0
KVP1 091328Z 28007KT 00/00 A3023 RMK A01 T00-000-0  RH  100%=      5-min Rain = 0
KVP1 091329Z 28008KT 00/00 A3023 RMK A01 T00-000-0  RH  100%=      5-min Rain = 0
KVP1 091330Z 28007KT 00/00 A3023 RMK A01 T00000000  RH  100%=      5-min Rain = 0
KVP1 091331Z 28007KT 00/00 A3023 RMK A01 T00000000  RH  100%=      5-min Rain = 0
KVP1 091332Z 28007KT 00/00 A3023 RMK A01 T00010001  RH  100%=      5-min Rain = 0
KVP1 091333Z 27006KT 00/00 A3023 RMK A01 T00010001  RH  100%=      5-min Rain = 0
KVP1 091334Z 27006KT 00/00 A3023 RMK A01 T00010001  RH  100%=      5-min Rain = 0
KVP1 091335Z 27006KT 00/00 A3023 RMK A01 T00010000  RH  100%=      5-min Rain = 0
KVP1 091336Z 27006KT 00/00 A3023 RMK A01 T00010001  RH  100%=      5-min Rain = 0
KVP1 091337Z 27006KT 00/00 A3023 RMK A01 T00010001  RH  100%=      5-min Rain = 0
KVP1 091338Z 28006KT 00/00 A3023 RMK A01 T00020001  RH  100%=      5-min Rain = 0
KVP1 091339Z 28006KT 00/00 A3023 RMK A01 T00020002  RH  100%=      5-min Rain = 0
KVP1 091340Z 28006KT 00/00 A3023 RMK A01 T00030003  RH  100%=      5-min Rain = 0
KVP1 091341Z 28006KT 00/00 A3023 RMK A01 T00040003  RH  100%=      5-min Rain = 0
KVP1 091342Z 28006KT 00/00 A3023 RMK A01 T00040004  RH  100%=      5-min Rain = 0
KVP1 091343Z 28006KT 00/00 A3023 RMK A01 T00040004  RH  100%=      5-min Rain = 0
KVP1 091344Z 28006KT 01/01 A3023 RMK A01 T00050005  RH  100%=      5-min Rain = 0
KVP1 091345Z 27006KT 01/01 A3023 RMK A01 T00060006  RH  100%=      5-min Rain = 0
KVP1 091346Z 27006KT 01/01 A3023 RMK A01 T00060006  RH  100%=      5-min Rain = 0
KVP1 091347Z 26006KT 01/01 A3023 RMK A01 T00070006  RH  099%=      5-min Rain = 0
KVP1 091348Z 26006KT 01/01 A3023 RMK A01 T00070005  RH  099%=      5-min Rain = 0
KVP1 091349Z 26006KT 01/01 A3023 RMK A01 T00080006  RH  099%=      5-min Rain = 0
KVP1 091350Z 27006KT 01/01 A3023 RMK A01 T00080007  RH  099%=      5-min Rain = 0
KVP1 091351Z 27006KT 01/01 A3023 RMK A01 T00090008  RH  099%=      5-min Rain = 0
KVP1 091352Z 27006KT 01/01 A3023 RMK A01 T00100008  RH  099%=      5-min Rain = 0
KVP1 091353Z 28006KT 01/01 A3023 RMK A01 T00110009  RH  099%=      5-min Rain = 0
KVP1 091354Z 28006KT 01/01 A3023 RMK A01 T00110010  RH  099%=      5-min Rain = 0
KVP1 091355Z 27005KT 01/01 A3023 RMK A01 T00120011  RH  099%=      5-min Rain = 0
KVP1 091356Z 27005KT 01/01 A3023 RMK A01 T00130011  RH  099%=      5-min Rain = 0
KVP1 091357Z 27005KT 01/01 A3023 RMK A01 T00130012  RH  099%=      5-min Rain = 0
KVP1 091358Z 27005KT 01/01 A3023 RMK A01 T00140012  RH  099%=      5-min Rain = 0
KVP1 091359Z 27005KT 02/01 A3023 RMK A01 T00150013  RH  099%=      5-min Rain = 0
KVP1 091400Z 27005KT 02/01 A3023 RMK A01 T00160013  RH  098%=      5-min Rain = 0
KVP1 091401Z 27006KT 02/01 A3023 RMK A01 T00160014  RH  098%=      5-min Rain = 0
KVP1 091402Z 28006KT 02/02 A3023 RMK A01 T00180016  RH  099%=      5-min Rain = 0
KVP1 091403Z 28006KT 02/02 A3023 RMK A01 T00190017  RH  099%=      5-min Rain = 0
KVP1 091404Z 28006KT 02/02 A3023 RMK A01 T00200018  RH  099%=      5-min Rain = 0
KVP1 091405Z 28006KT 02/02 A3023 RMK A01 T00210019  RH  098%=      5-min Rain = 0
KVP1 091406Z 28006KT 02/02 A3023 RMK A01 T00220020  RH  098%=      5-min Rain = 0
KVP1 091407Z 28006KT 02/02 A3023 RMK A01 T00240021  RH  098%=      5-min Rain = 0
KVP1 091408Z 28006KT 03/02 A3023 RMK A01 T00250022  RH  098%=      5-min Rain = 0
KVP1 091409Z 28006KT 03/02 A3023 RMK A01 T00260023  RH  098%=      5-min Rain = 0
KVP1 091410Z 28006KT 03/02 A3023 RMK A01 T00270023  RH  097%=      5-min Rain = 0
KVP1 091411Z 28006KT 03/02 A3023 RMK A01 T00290024  RH  097%=      5-min Rain = 0
KVP1 091412Z 28006KT 03/03 A3023 RMK A01 T00300025  RH  097%=      5-min Rain = 0
KVP1 091413Z 28006KT 03/03 A3023 RMK A01 T00320027  RH  097%=      5-min Rain = 0
KVP1 091414Z 28006KT 03/03 A3023 RMK A01 T00330027  RH  096%=      5-min Rain = 0
KVP1 091415Z 28006KT 03/03 A3023 RMK A01 T00340028  RH  096%=      5-min Rain = 0
KVP1 091416Z 28006KT 04/03 A3023 RMK A01 T00350028  RH  096%=      5-min Rain = 0
KVP1 091417Z 28006KT 04/03 A3023 RMK A01 T00360029  RH  095%=      5-min Rain = 0
KVP1 091418Z 28006KT 04/03 A3023 RMK A01 T00370029  RH  095%=      5-min Rain = 0
KVP1 091419Z 28006KT 04/03 A3023 RMK A01 T00380030  RH  095%=      5-min Rain = 0
KVP1 091420Z 28006KT 04/03 A3023 RMK A01 T00400032  RH  094%=      5-min Rain = 0
KVP1 091421Z 28006KT 04/03 A3023 RMK A01 T00410032  RH  094%=      5-min Rain = 0
KVP1 091422Z 28005KT 04/03 A3024 RMK A01 T00430033  RH  093%=      5-min Rain = 0
KVP1 091423Z 28006KT 04/03 A3024 RMK A01 T00440034  RH  093%=      5-min Rain = 0
KVP1 091424Z 28006KT 05/04 A3024 RMK A01 T00450035  RH  093%=      5-min Rain = 0
KVP1 091425Z 28006KT 05/04 A3024 RMK A01 T00460035  RH  092%=      5-min Rain = 0
KVP1 091426Z 28006KT 05/04 A3024 RMK A01 T00470035  RH  092%=      5-min Rain = 0
KVP1 091427Z 29006KT 05/04 A3024 RMK A01 T00480036  RH  092%=      5-min Rain = 0
KVP1 091428Z 29006KT 05/04 A3024 RMK A01 T00490039  RH  093%=      5-min Rain = 0
KVP1 091429Z 29006KT 05/04 A3024 RMK A01 T00500039  RH  093%=      5-min Rain = 0
KVP1 091430Z 29007KT 05/04 A3024 RMK A01 T00500038  RH  092%=      5-min Rain = 0
KVP1 091431Z 29007KT 05/04 A3024 RMK A01 T00510037  RH  091%=      5-min Rain = 0
KVP1 091432Z 28007KT 05/04 A3024 RMK A01 T00520038  RH  091%=      5-min Rain = 0
KVP1 091433Z 29006KT 05/04 A3024 RMK A01 T00530040  RH  091%=      5-min Rain = 0
KVP1 091434Z 29007KT 05/04 A3024 RMK A01 T00540040  RH  091%=      5-min Rain = 0
KVP1 091435Z 29007KT 05/04 A3024 RMK A01 T00540040  RH  090%=      5-min Rain = 0
KVP1 091436Z 29007KT 06/04 A3024 RMK A01 T00560041  RH  090%=      5-min Rain = 0
KVP1 091437Z 29007KT 06/04 A3024 RMK A01 T00570041  RH  090%=      5-min Rain = 0
KVP1 091438Z 29007KT 06/04 A3024 RMK A01 T00570043  RH  090%=      5-min Rain = 0
KVP1 091439Z 29007KT 06/04 A3024 RMK A01 T00580043  RH  090%=      5-min Rain = 0
KVP1 091440Z 29006KT 06/04 A3024 RMK A01 T00590042  RH  089%=      5-min Rain = 0
KVP1 091441Z 30006KT 06/05 A3024 RMK A01 T00600045  RH  090%=      5-min Rain = 0
KVP1 091442Z 30006KT 06/05 A3024 RMK A01 T00610046  RH  090%=      5-min Rain = 0
KVP1 091443Z 30007KT 06/05 A3024 RMK A01 T00620046  RH  089%=      5-min Rain = 0
KVP1 091444Z 30006KT 06/05 A3024 RMK A01 T00630045  RH  089%=      5-min Rain = 0
KVP1 091445Z 30006KT 06/05 A3024 RMK A01 T00640049  RH  090%=      5-min Rain = 0
KVP1 091446Z 30006KT 07/05 A3024 RMK A01 T00660051  RH  090%=      5-min Rain = 0
KVP1 091447Z 30005KT 07/05 A3024 RMK A01 T00680053  RH  090%=      5-min Rain = 0
KVP1 091448Z 30006KT 07/05 A3024 RMK A01 T00690053  RH  090%=      5-min Rain = 0
KVP1 091449Z 31006KT 07/05 A3024 RMK A01 T00700053  RH  089%=      5-min Rain = 0
KVP1 091450Z 30007KT 07/05 A3024 RMK A01 T00710054  RH  089%=      5-min Rain = 0
KVP1 091451Z 30007KT 07/05 A3024 RMK A01 T00710050  RH  087%=      5-min Rain = 0
KVP1 091452Z 30007KT 07/05 A3024 RMK A01 T00720053  RH  088%=      5-min Rain = 0
KVP1 091453Z 30008KT 07/05 A3024 RMK A01 T00730051  RH  086%=      5-min Rain = 0
KVP1 091454Z 30007KT 07/05 A3024 RMK A01 T00730048  RH  084%=      5-min Rain = 0
KVP1 091455Z 29006KT 07/05 A3024 RMK A01 T00740050  RH  085%=      5-min Rain = 0
KVP1 091456Z 29007KT 08/05 A3024 RMK A01 T00750051  RH  085%=      5-min Rain = 0
KVP1 091457Z 29007KT 08/05 A3024 RMK A01 T00760051  RH  084%=      5-min Rain = 0
KVP1 091458Z 29006KT 08/06 A3024 RMK A01 T00780055  RH  086%=      5-min Rain = 0
KVP1 091459Z 29007KT 08/05 A3024 RMK A01 T00790053  RH  084%=      5-min Rain = 0
KVP1 091500Z 29006KT 08/05 A3024 RMK A01 T00800054  RH  084%=      5-min Rain = 0
KVP1 091501Z 29006KT 08/06 A3024 RMK A01 T00810055  RH  084%=      5-min Rain = 0
KVP1 091502Z 29006KT 08/05 A3024 RMK A01 T00820054  RH  083%=      5-min Rain = 0
KVP1 091503Z 29006KT 08/06 A3024 RMK A01 T00820055  RH  083%=      5-min Rain = 0
KVP1 091504Z 29006KT 08/06 A3024 RMK A01 T00830056  RH  083%=      5-min Rain = 0
KVP1 091505Z 29006KT 08/06 A3024 RMK A01 T00840056  RH  082%=      5-min Rain = 0
KVP1 091506Z 28006KT 09/06 A3024 RMK A01 T00850056  RH  082%=      5-min Rain = 0
KVP1 091507Z 27004KT 09/06 A3024 RMK A01 T00860060  RH  083%=      5-min Rain = 0
KVP1 091508Z 27005KT 09/06 A3024 RMK A01 T00880062  RH  084%=      5-min Rain = 0
KVP1 091509Z 27005KT 09/06 A3024 RMK A01 T00890064  RH  084%=      5-min Rain = 0
KVP1 091510Z 26005KT 09/06 A3024 RMK A01 T00900062  RH  083%=      5-min Rain = 0
KVP1 091511Z 27005KT 09/06 A3024 RMK A01 T00900061  RH  082%=      5-min Rain = 0
KVP1 091512Z 26005KT 09/06 A3024 RMK A01 T00900062  RH  083%=      5-min Rain = 0
KVP1 091513Z 27006KT 09/06 A3024 RMK A01 T00910062  RH  082%=      5-min Rain = 0
KVP1 091514Z 27005KT 09/06 A3024 RMK A01 T00920064  RH  083%=      5-min Rain = 0
KVP1 091515Z 27005KT 09/06 A3024 RMK A01 T00930064  RH  082%=      5-min Rain = 0
KVP1 091516Z 26006KT 09/06 A3024 RMK A01 T00940063  RH  081%=      5-min Rain = 0
KVP1 091517Z 26005KT 09/06 A3024 RMK A01 T00940063  RH  081%=      5-min Rain = 0
KVP1 091518Z 26005KT 09/06 A3024 RMK A01 T00940062  RH  081%=      5-min Rain = 0
KVP1 091519Z 27006KT 09/06 A3024 RMK A01 T00940062  RH  081%=      5-min Rain = 0
KVP1 091520Z 27006KT 09/06 A3024 RMK A01 T00940061  RH  080%=      5-min Rain = 0
KVP1 091521Z 27006KT 09/06 A3024 RMK A01 T00940061  RH  080%=      5-min Rain = 0
KVP1 091522Z 26006KT 09/06 A3024 RMK A01 T00940060  RH  080%=      5-min Rain = 0
KVP1 091523Z 26007KT 09/06 A3024 RMK A01 T00930061  RH  080%=      5-min Rain = 0
KVP1 091524Z 27006KT 09/06 A3024 RMK A01 T00940061  RH  080%=      5-min Rain = 0
KVP1 091525Z 26006KT 09/06 A3024 RMK A01 T00940061  RH  080%=      5-min Rain = 0
KVP1 091526Z 26006KT 10/06 A3024 RMK A01 T00950061  RH  079%=      5-min Rain = 0
KVP1 091527Z 26007KT 10/06 A3024 RMK A01 T00960063  RH  080%=      5-min Rain = 0
KVP1 091528Z 27006KT 10/06 A3024 RMK A01 T00970062  RH  079%=      5-min Rain = 0
KVP1 091529Z 27006KT 10/06 A3024 RMK A01 T00970062  RH  079%=      5-min Rain = 0
KVP1 091530Z 26007KT 10/06 A3024 RMK A01 T00980062  RH  078%=      5-min Rain = 0
KVP1 091531Z 26006KT 10/06 A3024 RMK A01 T00990062  RH  078%=      5-min Rain = 0
KVP1 091532Z 26007KT 10/07 A3024 RMK A01 T01010068  RH  080%=      5-min Rain = 0
KVP1 091533Z 26006KT 10/07 A3024 RMK A01 T01020066  RH  078%=      5-min Rain = 0
KVP1 091534Z 27007KT 10/07 A3024 RMK A01 T01030067  RH  078%=      5-min Rain = 0
KVP1 091535Z 27006KT 10/07 A3024 RMK A01 T01040067  RH  078%=      5-min Rain = 0
KVP1 091536Z 26006KT 10/07 A3025 RMK A01 T01040069  RH  079%=      5-min Rain = 0
KVP1 091537Z 26007KT 11/07 A3025 RMK A01 T01050069  RH  078%=      5-min Rain = 0
KVP1 091538Z 26006KT 11/07 A3025 RMK A01 T01050070  RH  079%=      5-min Rain = 0
KVP1 091539Z 26007KT 11/07 A3025 RMK A01 T01060069  RH  078%=      5-min Rain = 0
KVP1 091540Z 27006KT 11/07 A3025 RMK A01 T01060071  RH  079%=      5-min Rain = 0
KVP1 091541Z 27006KT 11/07 A3025 RMK A01 T01080071  RH  078%=      5-min Rain = 0
KVP1 091542Z 27006KT 11/07 A3025 RMK A01 T01090070  RH  077%=      5-min Rain = 0
KVP1 091543Z 27007KT 11/07 A3025 RMK A01 T01090070  RH  077%=      5-min Rain = 0
KVP1 091544Z 27005KT 11/07 A3025 RMK A01 T01100070  RH  076%=      5-min Rain = 0
KVP1 091545Z 27005KT 11/07 A3025 RMK A01 T01110073  RH  078%=      5-min Rain = 0
KVP1 091546Z 27006KT 11/07 A3025 RMK A01 T01130074  RH  077%=      5-min Rain = 0
KVP1 091547Z 27006KT 11/07 A3025 RMK A01 T01130070  RH  075%=      5-min Rain = 0
KVP1 091548Z 27006KT 11/07 A3025 RMK A01 T01140073  RH  076%=      5-min Rain = 0
KVP1 091549Z 26005KT 12/08 A3025 RMK A01 T01160076  RH  077%=      5-min Rain = 0
KVP1 091550Z 26006KT 12/08 A3024 RMK A01 T01180077  RH  076%=      5-min Rain = 0
KVP1 091551Z 26007KT 12/08 A3024 RMK A01 T01180075  RH  075%=      5-min Rain = 0
KVP1 091552Z 25007KT 12/08 A3024 RMK A01 T01190075  RH  074%=      5-min Rain = 0
KVP1 091553Z 26006KT 12/08 A3024 RMK A01 T01190075  RH  075%=      5-min Rain = 0
KVP1 091554Z 26006KT 12/07 A3024 RMK A01 T01190074  RH  074%=      5-min Rain = 0
KVP1 091555Z 26006KT 12/08 A3024 RMK A01 T01190078  RH  076%=      5-min Rain = 0
KVP1 091556Z 27005KT 12/08 A3025 RMK A01 T01220080  RH  075%=      5-min Rain = 0
KVP1 091557Z 26006KT 12/08 A3025 RMK A01 T01240079  RH  074%=      5-min Rain = 0
KVP1 091558Z 27005KT 13/08 A3025 RMK A01 T01250080  RH  074%=      5-min Rain = 0
KVP1 091559Z 27006KT 13/08 A3025 RMK A01 T01250077  RH  073%=      5-min Rain = 0
KVP1 091600Z 27006KT 13/08 A3025 RMK A01 T01250077  RH  072%=      5-min Rain = 0
KVP1 091601Z 26006KT 13/08 A3025 RMK A01 T01250079  RH  073%=      5-min Rain = 0
KVP1 091602Z 26006KT 13/08 A3025 RMK A01 T01250076  RH  072%=      5-min Rain = 0
KVP1 091603Z 26006KT 13/08 A3025 RMK A01 T01250077  RH  073%=      5-min Rain = 0
KVP1 091604Z 26006KT 12/08 A3025 RMK A01 T01240078  RH  073%=      5-min Rain = 0
KVP1 091605Z 28006KT 13/08 A3025 RMK A01 T01250079  RH  073%=      5-min Rain = 0
KVP1 091606Z 26006KT 13/08 A3025 RMK A01 T01270078  RH  072%=      5-min Rain = 0
KVP1 091607Z 27004KT 13/08 A3025 RMK A01 T01270077  RH  071%=      5-min Rain = 0
KVP1 091608Z 27006KT 13/08 A3025 RMK A01 T01270078  RH  072%=      5-min Rain = 0
KVP1 091609Z 27006KT 13/08 A3025 RMK A01 T01290080  RH  072%=      5-min Rain = 0
KVP1 091610Z 28005KT 13/08 A3025 RMK A01 T01300079  RH  071%=      5-min Rain = 0
KVP1 091611Z 27005KT 13/08 A3025 RMK A01 T01310081  RH  071%=      5-min Rain = 0
KVP1 091612Z 27005KT 13/08 A3025 RMK A01 T01330080  RH  070%=      5-min Rain = 0
KVP1 091613Z 27005KT 14/08 A3025 RMK A01 T01350082  RH  070%=      5-min Rain = 0
KVP1 091614Z 28005KT 14/08 A3025 RMK A01 T01370079  RH  068%=      5-min Rain = 0
KVP1 091615Z 29005KT 14/08 A3025 RMK A01 T01390079  RH  067%=      5-min Rain = 0
KVP1 091616Z 28004KT 14/08 A3025 RMK A01 T01400077  RH  066%=      5-min Rain = 0
KVP1 091617Z 29005KT 14/08 A3025 RMK A01 T01420079  RH  066%=      5-min Rain = 0
KVP1 091618Z 29006KT 14/08 A3025 RMK A01 T01430076  RH  064%=      5-min Rain = 0
KVP1 091619Z 29006KT 14/08 A3025 RMK A01 T01430075  RH  064%=      5-min Rain = 0
KVP1 091620Z 29005KT 14/08 A3025 RMK A01 T01430076  RH  064%=      5-min Rain = 0
KVP1 091621Z 30005KT 14/08 A3025 RMK A01 T01440075  RH  063%=      5-min Rain = 0
KVP1 091622Z 30005KT 15/07 A3025 RMK A01 T01450073  RH  062%=      5-min Rain = 0
KVP1 091623Z 30005KT 15/07 A3025 RMK A01 T01460073  RH  062%=      5-min Rain = 0
KVP1 091624Z 28005KT 15/08 A3025 RMK A01 T01460079  RH  064%=      5-min Rain = 0
KVP1 091625Z 29005KT 15/08 A3024 RMK A01 T01480077  RH  062%=      5-min Rain = 0
KVP1 091626Z 29005KT 15/08 A3024 RMK A01 T01510075  RH  061%=      5-min Rain = 0
KVP1 091627Z 28005KT 15/08 A3024 RMK A01 T01510076  RH  061%=      5-min Rain = 0
KVP1 091628Z 29003KT 15/08 A3024 RMK A01 T01510077  RH  061%=      5-min Rain = 0
KVP1 091629Z 30004KT 15/08 A3024 RMK A01 T01520077  RH  061%=      5-min Rain = 0
KVP1 091630Z 29005KT 16/08 A3024 RMK A01 T01560078  RH  060%=      5-min Rain = 0
KVP1 091631Z 27005KT 16/08 A3024 RMK A01 T01570076  RH  058%=      5-min Rain = 0
KVP1 091632Z 26005KT 16/07 A3024 RMK A01 T01580074  RH  057%=      5-min Rain = 0
KVP1 091633Z 27006KT 16/07 A3024 RMK A01 T01570073  RH  058%=      5-min Rain = 0
KVP1 091634Z 27005KT 16/07 A3024 RMK A01 T01560073  RH  058%=      5-min Rain = 0
KVP1 091635Z 25005KT 16/08 A3024 RMK A01 T01570076  RH  059%=      5-min Rain = 0
KVP1 091636Z 25005KT 16/08 A3024 RMK A01 T01590078  RH  059%=      5-min Rain = 0
KVP1 091637Z 25005KT 16/08 A3024 RMK A01 T01610080  RH  059%=      5-min Rain = 0
KVP1 091638Z 25005KT 16/08 A3024 RMK A01 T01620080  RH  058%=      5-min Rain = 0
KVP1 091639Z 25006KT 16/08 A3024 RMK A01 T01630075  RH  056%=      5-min Rain = 0
KVP1 091640Z 26005KT 16/07 A3024 RMK A01 T01620073  RH  055%=      5-min Rain = 0
KVP1 091641Z 27006KT 16/07 A3024 RMK A01 T01610073  RH  056%=      5-min Rain = 0
KVP1 091642Z 27004KT 16/07 A3024 RMK A01 T01620068  RH  053%=      5-min Rain = 0
KVP1 091643Z 25005KT 16/07 A3024 RMK A01 T01630073  RH  055%=      5-min Rain = 0
KVP1 091644Z 26005KT 17/08 A3024 RMK A01 T01650075  RH  055%=      5-min Rain = 0
KVP1 091645Z 26005KT 17/08 A3024 RMK A01 T01660075  RH  055%=      5-min Rain = 0
KVP1 091646Z 26006KT 17/07 A3024 RMK A01 T01670069  RH  052%=      5-min Rain = 0
KVP1 091647Z 25005KT 17/07 A3024 RMK A01 T01670068  RH  052%=      5-min Rain = 0
KVP1 091648Z 24007KT 17/07 A3024 RMK A01 T01680066  RH  051%=      5-min Rain = 0
KVP1 091649Z 25006KT 17/06 A3024 RMK A01 T01680063  RH  050%=      5-min Rain = 0
KVP1 091650Z 23006KT 17/07 A3024 RMK A01 T01700065  RH  050%=      5-min Rain = 0
KVP1 091651Z 23006KT 17/07 A3024 RMK A01 T01710070  RH  051%=      5-min Rain = 0
KVP1 091652Z 23006KT 17/07 A3024 RMK A01 T01710073  RH  052%=      5-min Rain = 0
KVP1 091653Z 25006KT 17/08 A3024 RMK A01 T01710076  RH  053%=      5-min Rain = 0
KVP1 091654Z 25007KT 17/08 A3023 RMK A01 T01720075  RH  053%=      5-min Rain = 0
KVP1 091655Z 24005KT 17/07 A3023 RMK A01 T01730068  RH  050%=      5-min Rain = 0
KVP1 091656Z 23007KT 17/07 A3023 RMK A01 T01730069  RH  051%=      5-min Rain = 0
KVP1 091657Z 23007KT 17/07 A3023 RMK A01 T01740066  RH  049%=      5-min Rain = 0
KVP1 091658Z 23007KT 17/06 A3023 RMK A01 T01740060  RH  047%=      5-min Rain = 0
KVP1 091659Z 23007KT 17/06 A3023 RMK A01 T01740063  RH  048%=      5-min Rain = 0
KVP1 091700Z 24007KT 18/06 A3023 RMK A01 T01750061  RH  047%=      5-min Rain = 0
KVP1 091701Z 23007KT 18/06 A3023 RMK A01 T01770057  RH  045%=      5-min Rain = 0
KVP1 091702Z 24006KT 18/06 A3023 RMK A01 T01780060  RH  046%=      5-min Rain = 0
KVP1 091703Z 24006KT 18/07 A3023 RMK A01 T01790066  RH  048%=      5-min Rain = 0
KVP1 091704Z 24007KT 18/07 A3023 RMK A01 T01780069  RH  049%=      5-min Rain = 0
KVP1 091705Z 23008KT 18/07 A3023 RMK A01 T01790067  RH  048%=      5-min Rain = 0
KVP1 091706Z 24006KT 18/06 A3023 RMK A01 T01810060  RH  045%=      5-min Rain = 0
KVP1 091707Z 24007KT 18/06 A3023 RMK A01 T01840055  RH  043%=      5-min Rain = 0
KVP1 091708Z 24007KT 18/06 A3023 RMK A01 T01840057  RH  043%=      5-min Rain = 0
KVP1 091709Z 24007KT 18/06 A3023 RMK A01 T01830057  RH  044%=      5-min Rain = 0
KVP1 091710Z 23006KT 18/06 A3023 RMK A01 T01810062  RH  046%=      5-min Rain = 0
KVP1 091711Z 23007KT 18/06 A3023 RMK A01 T01800064  RH  046%=      5-min Rain = 0
KVP1 091712Z 23008KT 18/06 A3023 RMK A01 T01800061  RH  046%=      5-min Rain = 0
KVP1 091713Z 22008KT 18/06 A3023 RMK A01 T01810058  RH  044%=      5-min Rain = 0
KVP1 091714Z 23009KT 18/06 A3023 RMK A01 T01820058  RH  044%=      5-min Rain = 0
KVP1 091715Z 24007KT 18/04 A3023 RMK A01 T01840044  RH  040%=      5-min Rain = 0
KVP1 091716Z 24007KT 18/05 A3023 RMK A01 T01840047  RH  040%=      5-min Rain = 0
KVP1 091717Z 25007KT 18/05 A3023 RMK A01 T01840049  RH  041%=      5-min Rain = 0
KVP1 091718Z 25006KT 19/05 A3023 RMK A01 T01860045  RH  039%=      5-min Rain = 0
KVP1 091719Z 25008KT 19/05 A3023 RMK A01 T01880046  RH  039%=      5-min Rain = 0
KVP1 091720Z 26006KT 19/04 A3023 RMK A01 T01880044  RH  039%=      5-min Rain = 0
KVP1 091721Z 25007KT 19/05 A3023 RMK A01 T01870048  RH  040%=      5-min Rain = 0
KVP1 091722Z 24006KT 19/05 A3023 RMK A01 T01880050  RH  040%=      5-min Rain = 0
KVP1 091723Z 25005KT 19/05 A3023 RMK A01 T01890052  RH  041%=      5-min Rain = 0
KVP1 091724Z 24007KT 19/05 A3023 RMK A01 T01900047  RH  039%=      5-min Rain = 0
KVP1 091725Z 25007KT 19/05 A3023 RMK A01 T01890050  RH  040%=      5-min Rain = 0
KVP1 091726Z 25007KT 19/05 A3023 RMK A01 T01900048  RH  039%=      5-min Rain = 0
KVP1 091727Z 25007KT 19/05 A3023 RMK A01 T01890045  RH  039%=      5-min Rain = 0
KVP1 091728Z 25008KT 19/04 A3023 RMK A01 T01880041  RH  038%=      5-min Rain = 0
KVP1 091729Z 25006KT 19/04 A3023 RMK A01 T01880043  RH  038%=      5-min Rain = 0
KVP1 091730Z 23008KT 19/05 A3023 RMK A01 T01890047  RH  039%=      5-min Rain = 0
KVP1 091731Z 23007KT 19/04 A3023 RMK A01 T01900042  RH  038%=      5-min Rain = 0
KVP1 091732Z 22007KT 19/04 A3023 RMK A01 T01910044  RH  038%=      5-min Rain = 0
KVP1 091733Z 23005KT 19/05 A3023 RMK A01 T01910045  RH  038%=      5-min Rain = 0
KVP1 091734Z 25007KT 19/05 A3023 RMK A01 T01930045  RH  038%=      5-min Rain = 0
KVP1 091735Z 24008KT 20/04 A3022 RMK A01 T01950044  RH  037%=      5-min Rain = 0
KVP1 091736Z 25007KT 20/04 A3022 RMK A01 T01960041  RH  036%=      5-min Rain = 0
KVP1 091737Z 25006KT 20/05 A3022 RMK A01 T01960045  RH  037%=      5-min Rain = 0
KVP1 091738Z 25006KT 20/04 A3022 RMK A01 T01970044  RH  036%=      5-min Rain = 0
KVP1 091739Z 23007KT 20/04 A3022 RMK A01 T01980044  RH  036%=      5-min Rain = 0
KVP1 091740Z 22005KT 20/04 A3022 RMK A01 T01960043  RH  036%=      5-min Rain = 0
KVP1 091741Z 22006KT 20/05 A3022 RMK A01 T01960046  RH  037%=      5-min Rain = 0
KVP1 091742Z 24006KT 20/04 A3022 RMK A01 T01970044  RH  036%=      5-min Rain = 0
KVP1 091743Z 24009KT 20/04 A3022 RMK A01 T01980037  RH  035%=      5-min Rain = 0
KVP1 091744Z 24007KT 20/03 A3022 RMK A01 T01990027  RH  032%=      5-min Rain = 0
KVP1 091745Z 24006KT 20/03 A3022 RMK A01 T01990034  RH  034%=      5-min Rain = 0
KVP1 091746Z 25007KT 20/04 A3022 RMK A01 T01990035  RH  034%=      5-min Rain = 0
KVP1 091747Z 25008KT 20/03 A3022 RMK A01 T02010031  RH  032%=      5-min Rain = 0
KVP1 091748Z 24007KT 20/03 A3022 RMK A01 T02010033  RH  033%=      5-min Rain = 0
KVP1 091749Z 25007KT 20/03 A3022 RMK A01 T02040034  RH  032%=      5-min Rain = 0
KVP1 091750Z 25008KT 21/03 A3022 RMK A01 T02050029  RH  031%=      5-min Rain = 0
KVP1 091751Z 25008KT 20/03 A3022 RMK A01 T02030029  RH  032%=      5-min Rain = 0
KVP1 091752Z 22006KT 20/03 A3022 RMK A01 T02020030  RH  032%=      5-min Rain = 0
KVP1 091753Z 22005KT 20/03 A3022 RMK A01 T02010033  RH  033%=      5-min Rain = 0
KVP1 091754Z 25007KT 20/04 A3022 RMK A01 T02040038  RH  034%=      5-min Rain = 0
KVP1 091755Z 25008KT 21/04 A3022 RMK A01 T02050036  RH  033%=      5-min Rain = 0
KVP1 091756Z 25007KT 21/04 A3022 RMK A01 T02050038  RH  033%=      5-min Rain = 0
KVP1 091757Z 21006KT 20/04 A3022 RMK A01 T02040039  RH  034%=      5-min Rain = 0
KVP1 091758Z 20006KT 21/04 A3022 RMK A01 T02060036  RH  033%=      5-min Rain = 0
KVP1 091759Z 23007KT 21/04 A3021 RMK A01 T02060038  RH  033%=      5-min Rain = 0
KVP1 091800Z 25008KT 21/04 A3021 RMK A01 T02070036  RH  032%=      5-min Rain = 0
KVP1 091801Z 25006KT 21/04 A3021 RMK A01 T02060041  RH  034%=      5-min Rain = 0
KVP1 091802Z 23008KT 21/04 A3021 RMK A01 T02070039  RH  033%=      5-min Rain = 0
KVP1 091803Z 22006KT 21/03 A3021 RMK A01 T02080032  RH  031%=      5-min Rain = 0
KVP1 091804Z 21007KT 21/03 A3021 RMK A01 T02090033  RH  031%=      5-min Rain = 0
KVP1 091805Z 21008KT 21/03 A3021 RMK A01 T02120032  RH  031%=      5-min Rain = 0
KVP1 091806Z 20009KT 21/03 A3021 RMK A01 T02120031  RH  030%=      5-min Rain = 0
KVP1 091807Z 21009KT 21/03 A3021 RMK A01 T02110028  RH  030%=      5-min Rain = 0
KVP1 091808Z 22006KT 21/03 A3021 RMK A01 T02090030  RH  031%=      5-min Rain = 0
KVP1 091809Z 24008KT 21/03 A3021 RMK A01 T02090031  RH  031%=      5-min Rain = 0
KVP1 091810Z 25007KT 21/03 A3021 RMK A01 T02090028  RH  030%=      5-min Rain = 0
KVP1 091811Z 22010KT 21/03 A3021 RMK A01 T02090028  RH  030%=      5-min Rain = 0
KVP1 091812Z 22007KT 21/03 A3021 RMK A01 T02100030  RH  030%=      5-min Rain = 0
KVP1 091813Z 24009KT 21/03 A3021 RMK A01 T02110031  RH  031%=      5-min Rain = 0
KVP1 091814Z 24009KT 21/03 A302 RMK A01 T02110032  RH  031%=      5-min Rain = 0
KVP1 091815Z 24010KT 21/03 A302 RMK A01 T02110033  RH  031%=      5-min Rain = 0
KVP1 091816Z 24008KT 21/04 A302 RMK A01 T02120035  RH  031%=      5-min Rain = 0
KVP1 091817Z 24008KT 21/03 A302 RMK A01 T02120033  RH  031%=      5-min Rain = 0
KVP1 091818Z 22009KT 21/03 A302 RMK A01 T02130032  RH  030%=      5-min Rain = 0
KVP1 091819Z 23009KT 21/03 A302 RMK A01 T02110034  RH  031%=      5-min Rain = 0
KVP1 091820Z 23009KT 21/03 A302 RMK A01 T02110034  RH  031%=      5-min Rain = 0
KVP1 091821Z 22007KT 21/03 A302 RMK A01 T02110033  RH  031%=      5-min Rain = 0
KVP1 091822Z 22007KT 21/03 A302 RMK A01 T02110032  RH  031%=      5-min Rain = 0
KVP1 091823Z 23007KT 21/03 A302 RMK A01 T02090030  RH  031%=      5-min Rain = 0
KVP1 091824Z 21009KT 21/03 A302 RMK A01 T02120029  RH  030%=      5-min Rain = 0
KVP1 091825Z 24009KT 21/03 A302 RMK A01 T02130026  RH  029%=      5-min Rain = 0
KVP1 091826Z 25008KT 21/03 A302 RMK A01 T02130026  RH  029%=      5-min Rain = 0
KVP1 091827Z 25008KT 21/03 A302 RMK A01 T02120027  RH  029%=      5-min Rain = 0
KVP1 091828Z 24008KT 21/03 A302 RMK A01 T02100028  RH  030%=      5-min Rain = 0
KVP1 091829Z 24006KT 21/03 A302 RMK A01 T02090032  RH  031%=      5-min Rain = 0
KVP1 091830Z 23007KT 21/03 A302 RMK A01 T02100034  RH  031%=      5-min Rain = 0
KVP1 091831Z 21009KT 21/03 A3019 RMK A01 T02120033  RH  031%=      5-min Rain = 0
KVP1 091832Z 21007KT 21/03 A3019 RMK A01 T02140032  RH  030%=      5-min Rain = 0
KVP1 091833Z 24009KT 21/04 A3019 RMK A01 T02140035  RH  031%=      5-min Rain = 0
KVP1 091834Z 25008KT 22/04 A3019 RMK A01 T02150035  RH  031%=      5-min Rain = 0
KVP1 091835Z 23006KT 22/04 A3019 RMK A01 T02150036  RH  031%=      5-min Rain = 0
KVP1 091836Z 23006KT 22/04 A3019 RMK A01 T02170043  RH  032%=      5-min Rain = 0
KVP1 091837Z 24005KT 22/04 A3019 RMK A01 T02190040  RH  031%=      5-min Rain = 0
KVP1 091838Z 23008KT 22/04 A3019 RMK A01 T02190036  RH  030%=      5-min Rain = 0
KVP1 091839Z 21009KT 22/03 A3019 RMK A01 T02180033  RH  030%=      5-min Rain = 0
KVP1 091840Z 21007KT 22/03 A3019 RMK A01 T02170034  RH  030%=      5-min Rain = 0
KVP1 091841Z 20006KT 22/04 A3019 RMK A01 T02150039  RH  031%=      5-min Rain = 0
KVP1 091842Z 19006KT 22/04 A3019 RMK A01 T02150039  RH  031%=      5-min Rain = 0
KVP1 091843Z 21009KT 22/04 A3018 RMK A01 T02160038  RH  031%=      5-min Rain = 0
KVP1 091844Z 21009KT 22/03 A3018 RMK A01 T02180034  RH  030%=      5-min Rain = 0
KVP1 091845Z 20009KT 22/03 A3018 RMK A01 T02180028  RH  029%=      5-min Rain = 0
KVP1 091846Z 21009KT 22/03 A3018 RMK A01 T02190029  RH  029%=      5-min Rain = 0
KVP1 091847Z 21007KT 22/02 A3018 RMK A01 T02190020  RH  027%=      5-min Rain = 0
KVP1 091848Z 22009KT 22/03 A3018 RMK A01 T02180025  RH  028%=      5-min Rain = 0
KVP1 091849Z 22008KT 22/02 A3018 RMK A01 T02190017  RH  026%=      5-min Rain = 0
KVP1 091850Z 22007KT 22/02 A3018 RMK A01 T02180023  RH  028%=      5-min Rain = 0
KVP1 091851Z 22007KT 22/03 A3018 RMK A01 T02160030  RH  029%=      5-min Rain = 0
KVP1 091852Z 22007KT 22/03 A3018 RMK A01 T02180032  RH  030%=      5-min Rain = 0
KVP1 091853Z 20007KT 22/03 A3018 RMK A01 T02200032  RH  029%=      5-min Rain = 0
KVP1 091854Z 24008KT 22/03 A3018 RMK A01 T02230034  RH  029%=      5-min Rain = 0
KVP1 091855Z 23009KT 22/03 A3018 RMK A01 T02240030  RH  028%=      5-min Rain = 0
KVP1 091856Z 23008KT 22/03 A3018 RMK A01 T02190027  RH  028%=      5-min Rain = 0
KVP1 091857Z 22008KT 22/03 A3018 RMK A01 T02180027  RH  028%=      5-min Rain = 0
KVP1 091858Z 22006KT 22/03 A3018 RMK A01 T02190029  RH  029%=      5-min Rain = 0
KVP1 091859Z 21008KT 22/03 A3018 RMK A01 T02190032  RH  029%=      5-min Rain = 0
KVP1 091900Z 21008KT 22/03 A3017 RMK A01 T02180033  RH  030%=      5-min Rain = 0
KVP1 091901Z 23005KT 22/03 A3017 RMK A01 T02170033  RH  030%=      5-min Rain = 0
KVP1 091902Z 20007KT 22/04 A3017 RMK A01 T02190035  RH  030%=      5-min Rain = 0
KVP1 091903Z 23009KT 22/04 A3017 RMK A01 T02220037  RH  030%=      5-min Rain = 0
KVP1 091904Z 23008KT 22/04 A3017 RMK A01 T02240038  RH  030%=      5-min Rain = 0
KVP1 091905Z 21007KT 22/04 A3017 RMK A01 T02220035  RH  029%=      5-min Rain = 0
KVP1 091906Z 20009KT 22/03 A3017 RMK A01 T02220025  RH  027%=      5-min Rain = 0
KVP1 091907Z 20008KT 22/03 A3017 RMK A01 T02210026  RH  028%=      5-min Rain = 0
KVP1 091908Z 20009KT 22/03 A3017 RMK A01 T02220030  RH  028%=      5-min Rain = 0
KVP1 091909Z 19011KT 22/03 A3017 RMK A01 T02230028  RH  028%=      5-min Rain = 0
KVP1 091910Z 20008KT 22/03 A3017 RMK A01 T02220028  RH  028%=      5-min Rain = 0
KVP1 091911Z 21007KT 22/03 A3017 RMK A01 T02220027  RH  028%=      5-min Rain = 0
KVP1 091912Z 21006KT 22/03 A3017 RMK A01 T02220026  RH  028%=      5-min Rain = 0
KVP1 091913Z 22008KT 22/02 A3017 RMK A01 T02220023  RH  027%=      5-min Rain = 0
KVP1 091914Z 20010KT 22/02 A3016 RMK A01 T02220018  RH  026%=      5-min Rain = 0
KVP1 091915Z 21009KT 22/02 A3016 RMK A01 T02230015  RH  025%=      5-min Rain = 0
KVP1 091916Z 22009KT 22/02 A3016 RMK A01 T02230019  RH  026%=      5-min Rain = 0
KVP1 091917Z 22009KT 22/02 A3016 RMK A01 T02230018  RH  026%=      5-min Rain = 0
KVP1 091918Z 21009KT 22/01 A3016 RMK A01 T02220011  RH  025%=      5-min Rain = 0
KVP1 091919Z 21010KT 22/01 A3016 RMK A01 T02210014  RH  025%=      5-min Rain = 0
KVP1 091920Z 21010KT 22/01 A3016 RMK A01 T02210011  RH  025%=      5-min Rain = 0
KVP1 091921Z 21009KT 22/01 A3016 RMK A01 T02220007  RH  024%=      5-min Rain = 0
KVP1 091922Z 22010KT 22/01 A3016 RMK A01 T02220008  RH  024%=      5-min Rain = 0
KVP1 091923Z 22009KT 22/02 A3016 RMK A01 T02230016  RH  025%=      5-min Rain = 0
KVP1 091924Z 23008KT 22/02 A3016 RMK A01 T02240016  RH  025%=      5-min Rain = 0
KVP1 091925Z 22007KT 22/02 A3016 RMK A01 T02240017  RH  026%=      5-min Rain = 0
KVP1 091926Z 23009KT 22/01 A3016 RMK A01 T02240010  RH  024%=      5-min Rain = 0
KVP1 091927Z 21009KT 23/01 A3016 RMK A01 T02250011  RH  024%=      5-min Rain = 0
KVP1 091928Z 21007KT 23/02 A3016 RMK A01 T02260015  RH  025%=      5-min Rain = 0
KVP1 091929Z 20009KT 23/01 A3015 RMK A01 T02270009  RH  024%=      5-min Rain = 0
KVP1 091930Z 21009KT 23/01 A3015 RMK A01 T02260007  RH  023%=      5-min Rain = 0
KVP1 091931Z 22009KT 23/01 A3015 RMK A01 T02260011  RH  024%=      5-min Rain = 0
KVP1 091932Z 21008KT 23/01 A3015 RMK A01 T02260014  RH  025%=      5-min Rain = 0
KVP1 091933Z 20009KT 23/01 A3015 RMK A01 T02270009  RH  024%=      5-min Rain = 0
KVP1 091934Z 23009KT 23/01 A3015 RMK A01 T02270010  RH  024%=      5-min Rain = 0
KVP1 091935Z 23008KT 23/01 A3015 RMK A01 T02270010  RH  024%=      5-min Rain = 0
KVP1 091936Z 22010KT 23/00 A3015 RMK A01 T02260003  RH  023%=      5-min Rain = 0
KVP1 091937Z 22010KT 23/00 A3015 RMK A01 T02250003  RH  023%=      5-min Rain = 0
KVP1 091938Z 22006KT 23/M00 A3015 RMK A01 T02251002  RH  022%=      5-min Rain = 0
KVP1 091939Z 22005KT 22/00 A3015 RMK A01 T02240002  RH  023%=      5-min Rain = 0
KVP1 091940Z 22006KT 22/01 A3015 RMK A01 T02240009  RH  024%=      5-min Rain = 0
KVP1 091941Z 22006KT 23/01 A3015 RMK A01 T02260012  RH  024%=      5-min Rain = 0
KVP1 091942Z 22009KT 23/01 A3015 RMK A01 T02270012  RH  024%=      5-min Rain = 0
KVP1 091943Z 23007KT 23/01 A3015 RMK A01 T02270007  RH  023%=      5-min Rain = 0
KVP1 091944Z 24008KT 23/00 A3015 RMK A01 T02270004  RH  023%=      5-min Rain = 0
KVP1 091945Z 24007KT 23/01 A3015 RMK A01 T02280006  RH  023%=      5-min Rain = 0
KVP1 091946Z 24009KT 23/00 A3015 RMK A01 T02270004  RH  023%=      5-min Rain = 0
KVP1 091947Z 24009KT 23/01 A3015 RMK A01 T02270006  RH  023%=      5-min Rain = 0
KVP1 091948Z 25009KT 23/01 A3015 RMK A01 T02280005  RH  023%=      5-min Rain = 0
KVP1 091949Z 23008KT 23/01 A3015 RMK A01 T02270008  RH  024%=      5-min Rain = 0
KVP1 091950Z 23008KT 23/01 A3015 RMK A01 T02270013  RH  024%=      5-min Rain = 0
KVP1 091951Z 22007KT 23/01 A3015 RMK A01 T02270009  RH  024%=      5-min Rain = 0
KVP1 091952Z 23007KT 23/01 A3015 RMK A01 T02270011  RH  024%=      5-min Rain = 0
KVP1 091953Z 21005KT 23/02 A3015 RMK A01 T02270018  RH  025%=      5-min Rain = 0
KVP1 091954Z 22007KT 23/02 A3015 RMK A01 T02280019  RH  025%=      5-min Rain = 0
KVP1 091955Z 22007KT 23/01 A3015 RMK A01 T02300014  RH  024%=      5-min Rain = 0
KVP1 091956Z 22007KT 23/02 A3015 RMK A01 T02310015  RH  024%=      5-min Rain = 0
KVP1 091957Z 22007KT 23/01 A3015 RMK A01 T02320012  RH  023%=      5-min Rain = 0
KVP1 091958Z 20008KT 23/01 A3014 RMK A01 T02300006  RH  023%=      5-min Rain = 0
KVP1 091959Z 21008KT 23/01 A3014 RMK A01 T02300007  RH  023%=      5-min Rain = 0
KVP1 092000Z 20007KT 23/01 A3014 RMK A01 T02290007  RH  023%=      5-min Rain = 0
KVP1 092001Z 21005KT 23/01 A3014 RMK A01 T02270007  RH  023%=      5-min Rain = 0
KVP1 092002Z 18006KT 23/01 A3014 RMK A01 T02270011  RH  024%=      5-min Rain = 0
KVP1 092003Z 21006KT 23/01 A3014 RMK A01 T02270011  RH  024%=      5-min Rain = 0
KVP1 092004Z 22008KT 23/01 A3014 RMK A01 T02260013  RH  024%=      5-min Rain = 0
KVP1 092005Z 23008KT 23/01 A3014 RMK A01 T02280011  RH  024%=      5-min Rain = 0
KVP1 092006Z 22008KT 23/01 A3014 RMK A01 T02290009  RH  023%=      5-min Rain = 0
KVP1 092007Z 23007KT 23/01 A3014 RMK A01 T02290008  RH  023%=      5-min Rain = 0
KVP1 092008Z 23008KT 23/01 A3014 RMK A01 T02280006  RH  023%=      5-min Rain = 0
KVP1 092009Z 22007KT 23/01 A3014 RMK A01 T02270008  RH  023%=      5-min Rain = 0
KVP1 092010Z 24006KT 23/01 A3014 RMK A01 T02280010  RH  024%=      5-min Rain = 0
KVP1 092011Z 24006KT 23/01 A3014 RMK A01 T02270005  RH  023%=      5-min Rain = 0
KVP1 092012Z 23010KT 23/01 A3014 RMK A01 T02280005  RH  023%=      5-min Rain = 0
KVP1 092013Z 23009KT 23/01 A3014 RMK A01 T02290006  RH  023%=      5-min Rain = 0
KVP1 092014Z 22007KT 23/01 A3014 RMK A01 T02290012  RH  024%=      5-min Rain = 0
KVP1 092015Z 23006KT 23/01 A3014 RMK A01 T02290012  RH  024%=      5-min Rain = 0
KVP1 092016Z 23006KT 23/02 A3014 RMK A01 T02310015  RH  024%=      5-min Rain = 0
KVP1 092017Z 21006KT 23/02 A3014 RMK A01 T02330016  RH  024%=      5-min Rain = 0
KVP1 092018Z 21008KT 23/02 A3014 RMK A01 T02340019  RH  024%=      5-min Rain = 0
KVP1 092019Z 22007KT 23/02 A3014 RMK A01 T02310019  RH  025%=      5-min Rain = 0
KVP1 092020Z 21006KT 23/02 A3014 RMK A01 T02290016  RH  024%=      5-min Rain = 0
KVP1 092021Z 23010KT 23/01 A3014 RMK A01 T02280013  RH  024%=      5-min Rain = 0
KVP1 092022Z 24009KT 23/01 A3014 RMK A01 T02280012  RH  024%=      5-min Rain = 0
KVP1 092023Z 25007KT 23/01 A3014 RMK A01 T02290009  RH  023%=      5-min Rain = 0
KVP1 092024Z 23007KT 23/01 A3014 RMK A01 T02290009  RH  023%=      5-min Rain = 0
KVP1 092025Z 24010KT 23/02 A3014 RMK A01 T02290016  RH  025%=      5-min Rain = 0
KVP1 092026Z 24009KT 23/01 A3014 RMK A01 T02270012  RH  024%=      5-min Rain = 0
KVP1 092027Z 24007KT 23/01 A3014 RMK A01 T02290007  RH  023%=      5-min Rain = 0
KVP1 092028Z 22009KT 23/01 A3014 RMK A01 T02290009  RH  023%=      5-min Rain = 0
KVP1 092029Z 22010KT 23/01 A3013 RMK A01 T02290012  RH  024%=      5-min Rain = 0
KVP1 092030Z 22008KT 23/02 A3013 RMK A01 T02270015  RH  025%=      5-min Rain = 0
KVP1 092031Z 23010KT 23/02 A3013 RMK A01 T02260018  RH  025%=      5-min Rain = 0
KVP1 092032Z 22008KT 23/02 A3013 RMK A01 T02280019  RH  025%=      5-min Rain = 0
KVP1 092033Z 23009KT 23/02 A3013 RMK A01 T02280018  RH  025%=      5-min Rain = 0
KVP1 092034Z 22010KT 23/01 A3013 RMK A01 T02290014  RH  024%=      5-min Rain = 0
KVP1 092035Z 23010KT 23/01 A3013 RMK A01 T02280011  RH  024%=      5-min Rain = 0
KVP1 092036Z 23009KT 23/01 A3013 RMK A01 T02260011  RH  024%=      5-min Rain = 0
KVP1 092037Z 23006KT 23/01 A3013 RMK A01 T02250012  RH  024%=      5-min Rain = 0
KVP1 092038Z 21009KT 23/01 A3013 RMK A01 T02250011  RH  024%=      5-min Rain = 0
KVP1 092039Z 22009KT 23/01 A3013 RMK A01 T02250008  RH  024%=      5-min Rain = 0
KVP1 092040Z 22009KT 23/02 A3013 RMK A01 T02250015  RH  025%=      5-min Rain = 0
KVP1 092041Z 23009KT 23/01 A3013 RMK A01 T02260013  RH  024%=      5-min Rain = 0
KVP1 092042Z 23010KT 23/01 A3013 RMK A01 T02260006  RH  023%=      5-min Rain = 0
KVP1 092043Z 22009KT 23/00 A3013 RMK A01 T02270004  RH  023%=      5-min Rain = 0
KVP1 092044Z 23009KT 23/00 A3013 RMK A01 T02260004  RH  023%=      5-min Rain = 0
KVP1 092045Z 23008KT 23/M00 A3013 RMK A01 T02261002  RH  022%=      5-min Rain = 0
KVP1 092046Z 24007KT 23/M01 A3013 RMK A01 T02261006  RH  021%=      5-min Rain = 0
KVP1 092047Z 22007KT 23/01 A3013 RMK A01 T02250007  RH  024%=      5-min Rain = 0
KVP1 092048Z 20008KT 23/01 A3013 RMK A01 T02250007  RH  024%=      5-min Rain = 0
KVP1 092049Z 20009KT 23/02 A3013 RMK A01 T02260016  RH  025%=      5-min Rain = 0
KVP1 092050Z 22010KT 23/02 A3013 RMK A01 T02260023  RH  026%=      5-min Rain = 0
KVP1 092051Z 22009KT 23/02 A3013 RMK A01 T02270023  RH  026%=      5-min Rain = 0
KVP1 092052Z 23007KT 23/02 A3013 RMK A01 T02260023  RH  026%=      5-min Rain = 0
KVP1 092053Z 22008KT 23/03 A3013 RMK A01 T02270025  RH  027%=      5-min Rain = 0
KVP1 092054Z 22008KT 23/03 A3013 RMK A01 T02300026  RH  026%=      5-min Rain = 0
KVP1 092055Z 23011KT 23/02 A3013 RMK A01 T02310022  RH  025%=      5-min Rain = 0
KVP1 092056Z 23012KT 23/02 A3013 RMK A01 T02290021  RH  025%=      5-min Rain = 0
KVP1 092057Z 22012KT 23/02 A3012 RMK A01 T02280022  RH  026%=      5-min Rain = 0
KVP1 092058Z 23011KT 23/02 A3013 RMK A01 T02270023  RH  026%=      5-min Rain = 0
KVP1 092059Z 23010KT 23/02 A3013 RMK A01 T02260023  RH  026%=      5-min Rain = 0
KVP1 092100Z 22010KT 23/03 A3012 RMK A01 T02250025  RH  027%=      5-min Rain = 0
KVP1 092101Z 23010KT 22/02 A3012 RMK A01 T02240023  RH  027%=      5-min Rain = 0
KVP1 092102Z 24008KT 22/03 A3012 RMK A01 T02240026  RH  027%=      5-min Rain = 0
KVP1 092103Z 25009KT 23/03 A3012 RMK A01 T02260025  RH  027%=      5-min Rain = 0
KVP1 092104Z 23010KT 23/02 A3012 RMK A01 T02260023  RH  026%=      5-min Rain = 0
KVP1 092105Z 22009KT 23/02 A3012 RMK A01 T02260024  RH  026%=      5-min Rain = 0
KVP1 092106Z 22010KT 23/02 A3012 RMK A01 T02260024  RH  026%=      5-min Rain = 0
KVP1 092107Z 22011KT 23/02 A3012 RMK A01 T02280022  RH  026%=      5-min Rain = 0
KVP1 092108Z 22009KT 23/02 A3012 RMK A01 T02280018  RH  025%=      5-min Rain = 0
KVP1 092109Z 22010KT 23/02 A3012 RMK A01 T02260015  RH  025%=      5-min Rain = 0
KVP1 092110Z 22009KT 23/01 A3012 RMK A01 T02250014  RH  025%=      5-min Rain = 0
KVP1 092111Z 22008KT 22/02 A3012 RMK A01 T02240021  RH  026%=      5-min Rain = 0
KVP1 092112Z 22010KT 23/02 A3012 RMK A01 T02270020  RH  026%=      5-min Rain = 0
KVP1 092113Z 23009KT 23/02 A3012 RMK A01 T02270018  RH  025%=      5-min Rain = 0
KVP1 092114Z 23010KT 23/02 A3012 RMK A01 T02260018  RH  025%=      5-min Rain = 0
KVP1 092115Z 24009KT 22/02 A3012 RMK A01 T02240015  RH  025%=      5-min Rain = 0
KVP1 092116Z 22010KT 22/02 A3012 RMK A01 T02240016  RH  025%=      5-min Rain = 0
KVP1 092117Z 23010KT 22/01 A3012 RMK A01 T02240013  RH  025%=      5-min Rain = 0
KVP1 092118Z 21010KT 22/01 A3012 RMK A01 T02240012  RH  025%=      5-min Rain = 0
KVP1 092119Z 22009KT 23/01 A3012 RMK A01 T02250009  RH  024%=      5-min Rain = 0
KVP1 092120Z 23009KT 23/02 A3012 RMK A01 T02260015  RH  025%=      5-min Rain = 0
KVP1 092121Z 23007KT 23/02 A3012 RMK A01 T02260018  RH  025%=      5-min Rain = 0
KVP1 092122Z 24006KT 23/02 A3012 RMK A01 T02270020  RH  026%=      5-min Rain = 0
KVP1 092123Z 25008KT 23/02 A3012 RMK A01 T02270024  RH  026%=      5-min Rain = 0
KVP1 092124Z 25011KT 23/03 A3012 RMK A01 T02280029  RH  027%=      5-min Rain = 0
KVP1 092125Z 24010KT 23/03 A3012 RMK A01 T02270029  RH  027%=      5-min Rain = 0
KVP1 092126Z 23011KT 23/03 A3012 RMK A01 T02260029  RH  027%=      5-min Rain = 0
KVP1 092127Z 23010KT 23/03 A3012 RMK A01 T02260027  RH  027%=      5-min Rain = 0
KVP1 092128Z 23012KT 23/02 A3012 RMK A01 T02250024  RH  027%=      5-min Rain = 0
KVP1 092129Z 23010KT 23/02 A3012 RMK A01 T02250020  RH  026%=      5-min Rain = 0
KVP1 092130Z 24008KT 23/02 A3012 RMK A01 T02250019  RH  026%=      5-min Rain = 0
KVP1 092131Z 24009KT 23/02 A3012 RMK A01 T02270016  RH  025%=      5-min Rain = 0
KVP1 092132Z 24008KT 23/01 A3012 RMK A01 T02280014  RH  024%=      5-min Rain = 0
KVP1 092133Z 22009KT 23/01 A3012 RMK A01 T02280014  RH  024%=      5-min Rain = 0
KVP1 092134Z 23010KT 23/01 A3011 RMK A01 T02280012  RH  024%=      5-min Rain = 0
KVP1 092135Z 23009KT 23/01 A3011 RMK A01 T02280009  RH  024%=      5-min Rain = 0
KVP1 092136Z 25008KT 23/01 A3011 RMK A01 T02260011  RH  024%=      5-min Rain = 0
KVP1 092137Z 25008KT 23/02 A3011 RMK A01 T02260015  RH  025%=      5-min Rain = 0
KVP1 092138Z 25009KT 23/01 A3011 RMK A01 T02270014  RH  025%=      5-min Rain = 0
KVP1 092139Z 23009KT 23/02 A3011 RMK A01 T02270015  RH  025%=      5-min Rain = 0
KVP1 092140Z 22010KT 23/02 A3011 RMK A01 T02260015  RH  025%=      5-min Rain = 0
KVP1 092141Z 22011KT 23/01 A3011 RMK A01 T02260014  RH  025%=      5-min Rain = 0
KVP1 092142Z 21011KT 23/02 A3011 RMK A01 T02250015  RH  025%=      5-min Rain = 0
KVP1 092143Z 22010KT 23/01 A3011 RMK A01 T02250013  RH  025%=      5-min Rain = 0
KVP1 092144Z 22010KT 23/01 A3011 RMK A01 T02250013  RH  025%=      5-min Rain = 0
KVP1 092145Z 23009KT 23/01 A3011 RMK A01 T02250014  RH  025%=      5-min Rain = 0
KVP1 092146Z 24011KT 22/01 A3011 RMK A01 T02240012  RH  024%=      5-min Rain = 0
KVP1 092147Z 23010KT 22/01 A3011 RMK A01 T02240010  RH  024%=      5-min Rain = 0
KVP1 092148Z 23009KT 22/02 A3011 RMK A01 T02240015  RH  025%=      5-min Rain = 0
KVP1 092149Z 24008KT 23/02 A3011 RMK A01 T02250017  RH  025%=      5-min Rain = 0
KVP1 092150Z 25009KT 23/02 A3011 RMK A01 T02250016  RH  025%=      5-min Rain = 0
KVP1 092151Z 24008KT 22/02 A3011 RMK A01 T02240017  RH  026%=      5-min Rain = 0
KVP1 092152Z 25007KT 22/02 A3011 RMK A01 T02220020  RH  026%=      5-min Rain = 0
KVP1 092153Z 25007G12KT 22/03 A3011 RMK A01 T02230025  RH  027%=      5-min Rain = 0
KVP1 092154Z 22010KT 22/03 A3011 RMK A01 T02240025  RH  027%=      5-min Rain = 0
KVP1 092155Z 22010KT 23/02 A3011 RMK A01 T02260022  RH  026%=      5-min Rain = 0
KVP1 092156Z 23009KT 23/02 A3011 RMK A01 T02250022  RH  026%=      5-min Rain = 0
KVP1 092157Z 24010KT 23/02 A3011 RMK A01 T02260024  RH  026%=      5-min Rain = 0
KVP1 092158Z 24010KT 23/02 A3011 RMK A01 T02260020  RH  026%=      5-min Rain = 0
KVP1 092159Z 25010KT 23/01 A3011 RMK A01 T02260012  RH  024%=      5-min Rain = 0
KVP1 092200Z 24011KT 22/01 A3011 RMK A01 T02240008  RH  024%=      5-min Rain = 0
KVP1 092201Z 23011KT 22/01 A3011 RMK A01 T02230007  RH  024%=      5-min Rain = 0
KVP1 092202Z 22010KT 22/01 A3011 RMK A01 T02230005  RH  024%=      5-min Rain = 0
KVP1 092203Z 23009KT 22/00 A3011 RMK A01 T02230004  RH  023%=      5-min Rain = 0
KVP1 092204Z 23008KT 22/01 A3011 RMK A01 T02230005  RH  023%=      5-min Rain = 0
KVP1 092205Z 23008KT 22/00 A3011 RMK A01 T02240003  RH  023%=      5-min Rain = 0
KVP1 092206Z 23011KT 23/00 A3011 RMK A01 T02250002  RH  023%=      5-min Rain = 0
KVP1 092207Z 23011KT 23/00 A3011 RMK A01 T02250002  RH  023%=      5-min Rain = 0
KVP1 092208Z 23009KT 23/00 A3011 RMK A01 T02250000  RH  022%=      5-min Rain = 0
KVP1 092209Z 23009KT 23/M01 A3011 RMK A01 T02251005  RH  022%=      5-min Rain = 0
KVP1 092210Z 23009KT 22/M00 A3011 RMK A01 T02241004  RH  022%=      5-min Rain = 0
KVP1 092211Z 23010KT 22/M01 A3011 RMK A01 T02241005  RH  022%=      5-min Rain = 0
KVP1 092212Z 23009KT 22/M00 A301 RMK A01 T02231003  RH  022%=      5-min Rain = 0
KVP1 092213Z 23008KT 22/00 A301 RMK A01 T02230002  RH  023%=      5-min Rain = 0
KVP1 092214Z 23010KT 22/01 A301 RMK A01 T02220005  RH  024%=      5-min Rain = 0
KVP1 092215Z 24008KT 22/01 A301 RMK A01 T02220005  RH  024%=      5-min Rain = 0
KVP1 092216Z 24008KT 22/01 A301 RMK A01 T02220007  RH  024%=      5-min Rain = 0
KVP1 092217Z 24009KT 22/01 A301 RMK A01 T02230007  RH  024%=      5-min Rain = 0
KVP1 092218Z 23009KT 22/00 A301 RMK A01 T02240003  RH  023%=      5-min Rain = 0
KVP1 092219Z 23009KT 22/M01 A301 RMK A01 T02241007  RH  021%=      5-min Rain = 0
KVP1 092220Z 24009KT 22/M01 A301 RMK A01 T02231007  RH  021%=      5-min Rain = 0
KVP1 092221Z 23010KT 22/M01 A301 RMK A01 T02231007  RH  022%=      5-min Rain = 0
KVP1 092222Z 23008KT 22/M01 A301 RMK A01 T02221006  RH  022%=      5-min Rain = 0
KVP1 092223Z 23008KT 22/M00 A301 RMK A01 T02221003  RH  022%=      5-min Rain = 0
KVP1 092224Z 23007KT 22/M00 A301 RMK A01 T02221002  RH  023%=      5-min Rain = 0
KVP1 092225Z 23009KT 22/00 A301 RMK A01 T02220001  RH  023%=      5-min Rain = 0
KVP1 092226Z 23009KT 22/01 A301 RMK A01 T02220009  RH  024%=      5-min Rain = 0
KVP1 092227Z 23010KT 22/01 A301 RMK A01 T02220012  RH  025%=      5-min Rain = 0
KVP1 092228Z 23007KT 22/01 A301 RMK A01 T02220012  RH  025%=      5-min Rain = 0
KVP1 092229Z 23007KT 22/01 A301 RMK A01 T02220012  RH  025%=      5-min Rain = 0
KVP1 092230Z 24007KT 22/01 A301 RMK A01 T02220012  RH  025%=      5-min Rain = 0
KVP1 092231Z 24008KT 22/01 A301 RMK A01 T02230013  RH  025%=      5-min Rain = 0
KVP1 092232Z 24009KT 22/01 A301 RMK A01 T02220012  RH  025%=      5-min Rain = 0
KVP1 092233Z 24008KT 22/01 A301 RMK A01 T02210012  RH  025%=      5-min Rain = 0
KVP1 092234Z 23008KT 22/01 A301 RMK A01 T02200011  RH  025%=      5-min Rain = 0
KVP1 092235Z 24007KT 22/01 A301 RMK A01 T02200005  RH  024%=      5-min Rain = 0
KVP1 092236Z 24006KT 22/01 A301 RMK A01 T02200007  RH  024%=      5-min Rain = 0
KVP1 092237Z 24008KT 22/01 A301 RMK A01 T02200012  RH  025%=      5-min Rain = 0
KVP1 092238Z 24008KT 22/01 A301 RMK A01 T02200012  RH  025%=      5-min Rain = 0
KVP1 092239Z 24007KT 22/01 A301 RMK A01 T02200013  RH  025%=      5-min Rain = 0
KVP1 092240Z 24005KT 22/01 A301 RMK A01 T02190014  RH  026%=      5-min Rain = 0
KVP1 092241Z 23006KT 22/02 A301 RMK A01 T02190015  RH  026%=      5-min Rain = 0
KVP1 092242Z 24007KT 22/01 A301 RMK A01 T02190011  RH  025%=      5-min Rain = 0
KVP1 092243Z 23007KT 22/01 A301 RMK A01 T02190010  RH  025%=      5-min Rain = 0
KVP1 092244Z 23007KT 22/01 A301 RMK A01 T02190008  RH  025%=      5-min Rain = 0
KVP1 092245Z 23006KT 22/01 A301 RMK A01 T02180010  RH  025%=      5-min Rain = 0
KVP1 092246Z 23005KT 22/01 A301 RMK A01 T02180011  RH  025%=      5-min Rain = 0
KVP1 092247Z 23007KT 22/01 A301 RMK A01 T02180011  RH  025%=      5-min Rain = 0
KVP1 092248Z 23008KT 22/01 A301 RMK A01 T02180009  RH  025%=      5-min Rain = 0
KVP1 092249Z 24008KT 22/01 A301 RMK A01 T02170009  RH  025%=      5-min Rain = 0
KVP1 092250Z 23008KT 22/01 A301 RMK A01 T02160007  RH  025%=      5-min Rain = 0
KVP1 092251Z 23007KT 22/00 A301 RMK A01 T02150004  RH  025%=      5-min Rain = 0
KVP1 092252Z 23008KT 22/00 A301 RMK A01 T02150003  RH  024%=      5-min Rain = 0
KVP1 092253Z 23008KT 21/00 A301 RMK A01 T02140000  RH  024%=      5-min Rain = 0
KVP1 092254Z 23008KT 21/00 A301 RMK A01 T021400-0  RH  024%=      5-min Rain = 0
KVP1 092255Z 23008KT 21/M00 A301 RMK A01 T02131001  RH  024%=      5-min Rain = 0
KVP1 092256Z 23008KT 21/M00 A301 RMK A01 T02131002  RH  024%=      5-min Rain = 0
KVP1 092257Z 23008KT 21/M00 A301 RMK A01 T02121003  RH  024%=      5-min Rain = 0
KVP1 092258Z 23008KT 21/M00 A301 RMK A01 T02111001  RH  024%=      5-min Rain = 0
KVP1 092259Z 23007KT 21/00 A301 RMK A01 T021000-0  RH  024%=      5-min Rain = 0
KVP1 092300Z 23009KT 21/00 A301 RMK A01 T021000-0  RH  025%=      5-min Rain = 0
KVP1 092301Z 23008KT 21/00 A301 RMK A01 T02090001  RH  025%=      5-min Rain = 0
KVP1 092302Z 23008KT 21/00 A301 RMK A01 T02080003  RH  025%=      5-min Rain = 0
KVP1 092303Z 23007KT 21/00 A301 RMK A01 T02070004  RH  026%=      5-min Rain = 0
KVP1 092304Z 23008KT 21/01 A301 RMK A01 T02060006  RH  026%=      5-min Rain = 0
KVP1 092305Z 23008KT 21/01 A301 RMK A01 T02050006  RH  026%=      5-min Rain = 0
KVP1 092306Z 23007KT 21/01 A301 RMK A01 T02050006  RH  027%=      5-min Rain = 0
KVP1 092307Z 23007KT 20/01 A301 RMK A01 T02040006  RH  027%=      5-min Rain = 0
KVP1 092308Z 23007KT 20/01 A301 RMK A01 T02030007  RH  027%=      5-min Rain = 0
KVP1 092309Z 23007KT 20/01 A301 RMK A01 T02010007  RH  027%=      5-min Rain = 0
KVP1 092310Z 23007KT 20/01 A301 RMK A01 T02000007  RH  027%=      5-min Rain = 0
KVP1 092311Z 23007KT 20/01 A301 RMK A01 T01990007  RH  028%=      5-min Rain = 0
KVP1 092312Z 23008KT 20/01 A301 RMK A01 T01990007  RH  028%=      5-min Rain = 0
KVP1 092313Z 23008KT 20/01 A301 RMK A01 T01980008  RH  028%=      5-min Rain = 0
KVP1 092314Z 23007KT 20/01 A301 RMK A01 T01960007  RH  028%=      5-min Rain = 0
KVP1 092315Z 23008KT 20/01 A301 RMK A01 T01950008  RH  028%=      5-min Rain = 0
KVP1 092316Z 22008KT 19/01 A301 RMK A01 T01940008  RH  029%=      5-min Rain = 0
KVP1 092317Z 23008KT 19/01 A301 RMK A01 T01930008  RH  029%=      5-min Rain = 0
KVP1 092318Z 23008KT 19/01 A301 RMK A01 T01920008  RH  029%=      5-min Rain = 0
KVP1 092319Z 23008KT 19/01 A301 RMK A01 T01900008  RH  029%=      5-min Rain = 0
KVP1 092320Z 23009KT 19/01 A301 RMK A01 T01890009  RH  030%=      5-min Rain = 0
KVP1 092321Z 23008KT 19/01 A301 RMK A01 T01870009  RH  030%=      5-min Rain = 0
KVP1 092322Z 22008KT 19/01 A301 RMK A01 T01860009  RH  031%=      5-min Rain = 0
KVP1 092323Z 23008KT 18/01 A301 RMK A01 T01840009  RH  031%=      5-min Rain = 0
KVP1 092324Z 23008KT 18/01 A301 RMK A01 T01820009  RH  031%=      5-min Rain = 0
KVP1 092325Z 23008KT 18/01 A301 RMK A01 T01800010  RH  032%=      5-min Rain = 0
KVP1 092326Z 23008KT 18/01 A301 RMK A01 T01780009  RH  032%=      5-min Rain = 0
KVP1 092327Z 23008KT 18/01 A301 RMK A01 T01750009  RH  033%=      5-min Rain = 0
KVP1 092328Z 22008KT 17/01 A301 RMK A01 T01730009  RH  033%=      5-min Rain = 0
KVP1 092329Z 23008KT 17/01 A301 RMK A01 T01710009  RH  033%=      5-min Rain = 0
KVP1 092330Z 23008KT 17/01 A301 RMK A01 T01700009  RH  034%=      5-min Rain = 0
KVP1 092331Z 23008KT 17/01 A301 RMK A01 T01680008  RH  034%=      5-min Rain = 0
KVP1 092332Z 23008KT 17/01 A301 RMK A01 T01660008  RH  034%=      5-min Rain = 0
KVP1 092333Z 23008KT 16/01 A301 RMK A01 T01640008  RH  035%=      5-min Rain = 0
KVP1 092334Z 23008KT 16/01 A301 RMK A01 T01620008  RH  035%=      5-min Rain = 0
KVP1 092335Z 23008KT 16/01 A301 RMK A01 T01600007  RH  035%=      5-min Rain = 0
KVP1 092336Z 23008KT 16/01 A301 RMK A01 T01590007  RH  036%=      5-min Rain = 0
KVP1 092337Z 23008KT 16/01 A301 RMK A01 T01570007  RH  036%=      5-min Rain = 0
KVP1 092338Z 23008KT 16/01 A301 RMK A01 T01560007  RH  036%=      5-min Rain = 0
KVP1 092339Z 23008KT 15/01 A301 RMK A01 T01540006  RH  037%=      5-min Rain = 0
KVP1 092340Z 23008KT 15/01 A301 RMK A01 T01530006  RH  037%=      5-min Rain = 0
KVP1 092341Z 23008KT 15/01 A301 RMK A01 T01510005  RH  037%=      5-min Rain = 0
KVP1 092342Z 23008KT 15/01 A301 RMK A01 T01500006  RH  037%=      5-min Rain = 0
KVP1 092343Z 23008KT 15/01 A301 RMK A01 T01490006  RH  038%=      5-min Rain = 0
KVP1 092344Z 23008KT 15/01 A301 RMK A01 T01470005  RH  038%=      5-min Rain = 0
KVP1 092345Z 23008KT 15/01 A301 RMK A01 T01460005  RH  038%=      5-min Rain = 0
KVP1 092346Z 23008KT 14/00 A301 RMK A01 T01440004  RH  038%=      5-min Rain = 0
KVP1 092347Z 23008KT 14/00 A301 RMK A01 T01430004  RH  039%=      5-min Rain = 0
KVP1 092348Z 23008KT 14/00 A301 RMK A01 T01420004  RH  039%=      5-min Rain = 0
KVP1 092349Z 23008KT 14/00 A301 RMK A01 T01410004  RH  039%=      5-min Rain = 0
KVP1 092350Z 23008KT 14/00 A301 RMK A01 T01400004  RH  039%=      5-min Rain = 0
KVP1 092351Z 23008KT 14/00 A301 RMK A01 T01390004  RH  040%=      5-min Rain = 0
KVP1 092352Z 23008KT 14/00 A301 RMK A01 T01380004  RH  040%=      5-min Rain = 0
KVP1 092353Z 23008KT 14/00 A301 RMK A01 T01370004  RH  040%=      5-min Rain = 0
KVP1 092354Z 23008KT 14/00 A301 RMK A01 T01370004  RH  040%=      5-min Rain = 0
KVP1 092355Z 23008KT 14/00 A301 RMK A01 T01360003  RH  040%=      5-min Rain = 0
KVP1 092356Z 23008KT 14/00 A301 RMK A01 T01350004  RH  040%=      5-min Rain = 0
KVP1 092357Z 23008KT 14/00 A301 RMK A01 T01350004  RH  041%=      5-min Rain = 0
KVP1 092358Z 23008KT 13/00 A301 RMK A01 T01340004  RH  041%=      5-min Rain = 0
KVP1 092359Z 23008KT 13/00 A301 RMK A01 T01340004  RH  041%=      5-min Rain = 0
KVP1 100000Z 22008KT 13/01 A301 RMK A01 T01340005  RH  041%=      5-min Rain = 0
KVP1 100001Z 22008KT 13/01 A301 RMK A01 T01330005  RH  041%=      5-min Rain = 0
KVP1 100002Z 22008KT 13/01 A301 RMK A01 T01320005  RH  042%=      5-min Rain = 0
KVP1 100003Z 22008KT 13/01 A301 RMK A01 T01310005  RH  042%=      5-min Rain = 0
KVP1 100004Z 22009KT 13/01 A301 RMK A01 T01300006  RH  042%=      5-min Rain = 0
KVP1 100005Z 22009KT 13/01 A301 RMK A01 T01300006  RH  043%=      5-min Rain = 0
KVP1 100006Z 22009KT 13/01 A301 RMK A01 T01290006  RH  043%=      5-min Rain = 0
KVP1 100007Z 22009KT 13/01 A301 RMK A01 T01280006  RH  043%=      5-min Rain = 0
KVP1 100008Z 22009KT 13/01 A301 RMK A01 T01260007  RH  044%=      5-min Rain = 0
KVP1 100009Z 22009KT 13/01 A301 RMK A01 T01260007  RH  044%=      5-min Rain = 0
KVP1 100010Z 22009KT 13/01 A301 RMK A01 T01250007  RH  044%=      5-min Rain = 0
KVP1 100011Z 22010KT 13/01 A301 RMK A01 T01250008  RH  044%=      5-min Rain = 0
KVP1 100012Z 22010KT 13/01 A301 RMK A01 T01250008  RH  045%=      5-min Rain = 0
KVP1 100013Z 22010KT 13/01 A301 RMK A01 T01250008  RH  045%=      5-min Rain = 0
KVP1 100014Z 22009KT 13/01 A301 RMK A01 T01250008  RH  045%=      5-min Rain = 0
KVP1 100015Z 22009KT 13/01 A301 RMK A01 T01250008  RH  045%=      5-min Rain = 0
KVP1 100016Z 22009KT 12/01 A301 RMK A01 T01240008  RH  045%=      5-min Rain = 0
KVP1 100017Z 21009KT 12/01 A301 RMK A01 T01210007  RH  045%=      5-min Rain = 0
KVP1 100018Z 20008KT 12/01 A301 RMK A01 T01190006  RH  046%=      5-min Rain = 0
KVP1 100019Z 21008KT 12/01 A301 RMK A01 T01180005  RH  046%=      5-min Rain = 0
KVP1 100020Z 21008KT 12/01 A301 RMK A01 T01160005  RH  046%=      5-min Rain = 0
KVP1 100021Z 21008KT 12/01 A301 RMK A01 T01150005  RH  047%=      5-min Rain = 0
KVP1 100022Z 21008KT 11/01 A301 RMK A01 T01140005  RH  047%=      5-min Rain = 0
KVP1 100023Z 21009KT 11/01 A301 RMK A01 T01130005  RH  047%=      5-min Rain = 0
KVP1 100024Z 21009KT 11/01 A301 RMK A01 T01120005  RH  048%=      5-min Rain = 0
KVP1 100025Z 21009KT 11/01 A301 RMK A01 T01110005  RH  048%=      5-min Rain = 0
KVP1 100026Z 21010KT 11/00 A301 RMK A01 T01110004  RH  048%=      5-min Rain = 0
KVP1 100027Z 21010KT 11/00 A301 RMK A01 T01100004  RH  048%=      5-min Rain = 0
KVP1 100028Z 21010KT 11/00 A301 RMK A01 T01090004  RH  048%=      5-min Rain = 0
KVP1 100029Z 21010KT 11/00 A301 RMK A01 T01090004  RH  048%=      5-min Rain = 0
KVP1 100030Z 21010KT 11/01 A301 RMK A01 T01090005  RH  049%=      5-min Rain = 0
KVP1 100031Z 21010KT 11/01 A301 RMK A01 T01090005  RH  049%=      5-min Rain = 0
KVP1 100032Z 21010KT 11/00 A301 RMK A01 T01090004  RH  049%=      5-min Rain = 0
KVP1 100033Z 21010KT 11/01 A301 RMK A01 T01080005  RH  049%=      5-min Rain = 0
KVP1 100034Z 21010KT 11/00 A301 RMK A01 T01080004  RH  049%=      5-min Rain = 0
KVP1 100035Z 21010KT 11/00 A301 RMK A01 T01070004  RH  049%=      5-min Rain = 0
KVP1 100036Z 21010KT 11/00 A301 RMK A01 T01070004  RH  049%=      5-min Rain = 0
KVP1 100037Z 21010KT 11/00 A301 RMK A01 T01070004  RH  049%=      5-min Rain = 0
KVP1 100038Z 21009KT 11/00 A301 RMK A01 T01070004  RH  049%=      5-min Rain = 0
KVP1 100039Z 21010KT 11/00 A301 RMK A01 T01060004  RH  049%=      5-min Rain = 0
KVP1 100040Z 21009KT 11/00 A301 RMK A01 T01060004  RH  049%=      5-min Rain = 0
KVP1 100041Z 21009KT 11/00 A301 RMK A01 T01060004  RH  049%=      5-min Rain = 0
KVP1 100042Z 21009KT 11/01 A301 RMK A01 T01060005  RH  049%=      5-min Rain = 0
KVP1 100043Z 21008KT 11/00 A301 RMK A01 T01060004  RH  049%=      5-min Rain = 0
KVP1 100044Z 20007KT 11/00 A301 RMK A01 T01060004  RH  049%=      5-min Rain = 0
KVP1 100045Z 20008KT 11/00 A301 RMK A01 T01060004  RH  049%=      5-min Rain = 0
KVP1 100046Z 20009KT 11/01 A301 RMK A01 T01060005  RH  050%=      5-min Rain = 0
KVP1 100047Z 21010KT 11/01 A301 RMK A01 T01070006  RH  050%=      5-min Rain = 0
KVP1 100048Z 21010KT 11/01 A301 RMK A01 T01070007  RH  050%=      5-min Rain = 0
KVP1 100049Z 20010KT 11/01 A301 RMK A01 T01080007  RH  050%=      5-min Rain = 0
KVP1 100050Z 21010KT 11/01 A301 RMK A01 T01080008  RH  050%=      5-min Rain = 0
KVP1 100051Z 21009KT 11/01 A301 RMK A01 T01080009  RH  050%=      5-min Rain = 0
KVP1 100052Z 21009KT 11/01 A301 RMK A01 T01080009  RH  050%=      5-min Rain = 0
KVP1 100053Z 21010KT 11/01 A301 RMK A01 T01080009  RH  051%=      5-min Rain = 0
KVP1 100054Z 21010KT 11/01 A301 RMK A01 T01070009  RH  051%=      5-min Rain = 0
KVP1 100055Z 21010KT 11/01 A301 RMK A01 T01070009  RH  051%=      5-min Rain = 0
KVP1 100056Z 21010KT 11/01 A301 RMK A01 T01060009  RH  051%=      5-min Rain = 0
KVP1 100057Z 20010KT 11/01 A301 RMK A01 T01060009  RH  051%=      5-min Rain = 0
KVP1 100058Z 21010KT 11/01 A301 RMK A01 T01060009  RH  051%=      5-min Rain = 0
KVP1 100059Z 21010KT 11/01 A301 RMK A01 T01060009  RH  051%=      5-min Rain = 0
KVP1 100100Z 21010KT 11/01 A301 RMK A01 T01060008  RH  051%=      5-min Rain = 0
KVP1 100101Z 21010KT 11/01 A301 RMK A01 T01050008  RH  051%=      5-min Rain = 0
KVP1 100102Z 21010KT 11/01 A301 RMK A01 T01050008  RH  051%=      5-min Rain = 0
KVP1 100103Z 21010KT 10/01 A301 RMK A01 T01040008  RH  051%=      5-min Rain = 0
KVP1 100104Z 21010KT 10/01 A301 RMK A01 T01030008  RH  052%=      5-min Rain = 0
KVP1 100105Z 21010KT 10/01 A301 RMK A01 T01030008  RH  052%=      5-min Rain = 0
KVP1 100106Z 21010KT 10/01 A301 RMK A01 T01020008  RH  052%=      5-min Rain = 0
KVP1 100107Z 21010KT 10/01 A301 RMK A01 T01020008  RH  052%=      5-min Rain = 0
KVP1 100108Z 21011KT 10/01 A301 RMK A01 T01010007  RH  052%=      5-min Rain = 0
KVP1 100109Z 20011KT 10/01 A301 RMK A01 T01000007  RH  052%=      5-min Rain = 0
KVP1 100110Z 21011KT 10/01 A301 RMK A01 T01000007  RH  053%=      5-min Rain = 0
KVP1 100116Z 21010KT 10/01 A301 RMK A01 T01020006  RH  051%=      5-min Rain = 0
KVP1 100117Z 21010KT 10/01 A301 RMK A01 T01010006  RH  052%=      5-min Rain = 0
KVP1 100118Z 21011KT 10/01 A301 RMK A01 T00990005  RH  052%=      5-min Rain = 0
KVP1 100119Z 21010KT 10/01 A301 RMK A01 T00980005  RH  052%=      5-min Rain = 0
KVP1 100120Z 21010KT 10/01 A301 RMK A01 T00970005  RH  052%=      5-min Rain = 0
KVP1 100121Z 21010KT 10/00 A301 RMK A01 T00960004  RH  053%=      5-min Rain = 0
KVP1 100122Z 21010KT 10/00 A301 RMK A01 T00950004  RH  053%=      5-min Rain = 0
KVP1 100123Z 22010KT 09/00 A301 RMK A01 T00940004  RH  053%=      5-min Rain = 0
KVP1 100124Z 22009KT 09/00 A301 RMK A01 T00930003  RH  054%=      5-min Rain = 0
KVP1 100125Z 22009KT 09/00 A301 RMK A01 T00910003  RH  054%=      5-min Rain = 0
KVP1 100126Z 22008KT 09/00 A301 RMK A01 T00900003  RH  054%=      5-min Rain = 0
KVP1 100127Z 22009KT 09/00 A301 RMK A01 T00890003  RH  055%=      5-min Rain = 0
KVP1 100128Z 22009KT 09/00 A301 RMK A01 T00880002  RH  055%=      5-min Rain = 0
KVP1 100129Z 22009KT 09/00 A301 RMK A01 T00880002  RH  055%=      5-min Rain = 0
KVP1 100130Z 22009KT 09/00 A301 RMK A01 T00890002  RH  054%=      5-min Rain = 0
KVP1 100131Z 22009KT 09/00 A301 RMK A01 T00900003  RH  054%=      5-min Rain = 0
KVP1 100132Z 22009KT 09/00 A301 RMK A01 T00900002  RH  054%=      5-min Rain = 0
KVP1 100133Z 22009KT 09/00 A301 RMK A01 T00900003  RH  054%=      5-min Rain = 0
KVP1 100134Z 22009KT 09/00 A301 RMK A01 T00910003  RH  054%=      5-min Rain = 0
KVP1 100135Z 22009KT 09/00 A301 RMK A01 T00900003  RH  054%=      5-min Rain = 0
KVP1 100136Z 22009KT 09/00 A301 RMK A01 T00910003  RH  054%=      5-min Rain = 0
KVP1 100137Z 22009KT 09/00 A301 RMK A01 T00900003  RH  054%=      5-min Rain = 0
KVP1 100138Z 22009KT 09/00 A301 RMK A01 T00890003  RH  055%=      5-min Rain = 0
KVP1 100139Z 22009KT 09/00 A301 RMK A01 T00890002  RH  055%=      5-min Rain = 0
KVP1 100140Z 22010KT 09/00 A301 RMK A01 T00880002  RH  055%=      5-min Rain = 0
KVP1 100141Z 22010KT 09/00 A301 RMK A01 T00880002  RH  055%=      5-min Rain = 0
KVP1 100142Z 22010KT 09/00 A301 RMK A01 T00880002  RH  055%=      5-min Rain = 0
KVP1 100143Z 23010KT 09/00 A301 RMK A01 T00870003  RH  055%=      5-min Rain = 0
KVP1 100144Z 22010KT 09/00 A301 RMK A01 T00880003  RH  055%=      5-min Rain = 0
KVP1 100145Z 22010KT 09/00 A301 RMK A01 T00880003  RH  055%=      5-min Rain = 0
KVP1 100146Z 22010KT 09/00 A301 RMK A01 T00880004  RH  055%=      5-min Rain = 0
KVP1 100147Z 22010KT 09/00 A301 RMK A01 T00880004  RH  056%=      5-min Rain = 0
KVP1 100148Z 22010KT 09/00 A301 RMK A01 T00870004  RH  056%=      5-min Rain = 0
KVP1 100149Z 22010KT 09/00 A301 RMK A01 T00870004  RH  056%=      5-min Rain = 0
KVP1 100150Z 22010KT 09/00 A301 RMK A01 T00860004  RH  056%=      5-min Rain = 0
KVP1 100151Z 22010KT 09/00 A301 RMK A01 T00860004  RH  056%=      5-min Rain = 0
KVP1 100152Z 22010KT 09/00 A301 RMK A01 T00850004  RH  057%=      5-min Rain = 0
KVP1 100153Z 22010KT 09/00 A301 RMK A01 T00860004  RH  057%=      5-min Rain = 0
KVP1 100154Z 22010KT 09/01 A301 RMK A01 T00880006  RH  056%=      5-min Rain = 0
KVP1 100155Z 22010KT 09/01 A301 RMK A01 T00910007  RH  056%=      5-min Rain = 0
KVP1 100156Z 23010KT 09/01 A301 RMK A01 T00920007  RH  056%=      5-min Rain = 0
KVP1 100157Z 22010KT 09/01 A301 RMK A01 T00920007  RH  055%=      5-min Rain = 0
KVP1 100158Z 22011KT 09/01 A301 RMK A01 T00930007  RH  055%=      5-min Rain = 0
KVP1 100159Z 22010KT 09/01 A301 RMK A01 T00940008  RH  055%=      5-min Rain = 0
KVP1 100200Z 23010KT 09/01 A301 RMK A01 T00940007  RH  055%=      5-min Rain = 0
KVP1 100201Z 23010KT 09/01 A301 RMK A01 T00940007  RH  055%=      5-min Rain = 0
KVP1 100202Z 23010KT 09/01 A301 RMK A01 T00940007  RH  055%=      5-min Rain = 0
KVP1 100203Z 23011KT 09/01 A301 RMK A01 T00930007  RH  055%=      5-min Rain = 0
KVP1 100204Z 23011KT 09/01 A301 RMK A01 T00920007  RH  055%=      5-min Rain = 0
KVP1 100205Z 23011KT 09/01 A301 RMK A01 T00910007  RH  056%=      5-min Rain = 0
KVP1 100206Z 23011KT 09/01 A301 RMK A01 T00900006  RH  056%=      5-min Rain = 0
KVP1 100207Z 23011KT 09/01 A301 RMK A01 T00890006  RH  056%=      5-min Rain = 0
KVP1 100208Z 23011KT 09/01 A301 RMK A01 T00890006  RH  056%=      5-min Rain = 0
KVP1 100209Z 23011KT 09/01 A301 RMK A01 T00890007  RH  056%=      5-min Rain = 0
KVP1 100210Z 23010KT 09/01 A301 RMK A01 T00890007  RH  056%=      5-min Rain = 0
KVP1 100211Z 23010KT 09/01 A301 RMK A01 T00880007  RH  057%=      5-min Rain = 0
KVP1 100212Z 23010KT 09/01 A301 RMK A01 T00880007  RH  057%=      5-min Rain = 0
KVP1 100213Z 23010KT 09/01 A301 RMK A01 T00870007  RH  057%=      5-min Rain = 0
KVP1 100214Z 23010KT 09/01 A301 RMK A01 T00860007  RH  058%=      5-min Rain = 0
KVP1 100215Z 23010KT 09/01 A301 RMK A01 T00850007  RH  058%=      5-min Rain = 0
KVP1 100216Z 23010KT 09/01 A301 RMK A01 T00850007  RH  058%=      5-min Rain = 0
KVP1 100217Z 23010KT 08/01 A301 RMK A01 T00840007  RH  058%=      5-min Rain = 0
KVP1 100218Z 23010KT 08/01 A301 RMK A01 T00830007  RH  059%=      5-min Rain = 0
KVP1 100219Z 23009KT 08/01 A301 RMK A01 T00830007  RH  059%=      5-min Rain = 0
KVP1 100220Z 22010KT 08/01 A301 RMK A01 T00830007  RH  059%=      5-min Rain = 0
KVP1 100221Z 23010KT 08/01 A301 RMK A01 T00820007  RH  059%=      5-min Rain = 0
KVP1 100222Z 23009KT 08/01 A301 RMK A01 T00820008  RH  059%=      5-min Rain = 0
KVP1 100223Z 23009KT 08/01 A301 RMK A01 T00820007  RH  059%=      5-min Rain = 0
KVP1 100224Z 23009KT 08/01 A301 RMK A01 T00810007  RH  060%=      5-min Rain = 0
KVP1 100225Z 23009KT 08/01 A301 RMK A01 T00800007  RH  060%=      5-min Rain = 0
KVP1 100226Z 23009KT 08/01 A301 RMK A01 T00800007  RH  060%=      5-min Rain = 0
KVP1 100227Z 23009KT 08/01 A301 RMK A01 T00800008  RH  060%=      5-min Rain = 0
KVP1 100228Z 23009KT 08/01 A301 RMK A01 T00790007  RH  061%=      5-min Rain = 0
KVP1 100229Z 23009KT 08/01 A301 RMK A01 T00790008  RH  061%=      5-min Rain = 0
KVP1 100230Z 23009KT 08/01 A301 RMK A01 T00780007  RH  061%=      5-min Rain = 0
KVP1 100231Z 23009KT 08/01 A301 RMK A01 T00770007  RH  061%=      5-min Rain = 0
KVP1 100232Z 23009KT 08/01 A301 RMK A01 T00760007  RH  062%=      5-min Rain = 0
KVP1 100233Z 23009KT 08/01 A301 RMK A01 T00760007  RH  062%=      5-min Rain = 0
KVP1 100234Z 23009KT 08/01 A301 RMK A01 T00750007  RH  062%=      5-min Rain = 0
KVP1 100235Z 23008KT 08/01 A301 RMK A01 T00750007  RH  062%=      5-min Rain = 0
KVP1 100236Z 23009KT 07/01 A301 RMK A01 T00740007  RH  063%=      5-min Rain = 0
KVP1 100237Z 23009KT 07/01 A301 RMK A01 T00730007  RH  063%=      5-min Rain = 0
KVP1 100238Z 23009KT 07/01 A301 RMK A01 T00720007  RH  063%=      5-min Rain = 0
KVP1 100239Z 23009KT 07/01 A301 RMK A01 T00710007  RH  064%=      5-min Rain = 0
KVP1 100240Z 23009KT 07/01 A301 RMK A01 T00710007  RH  064%=      5-min Rain = 0
KVP1 100241Z 23009KT 07/01 A301 RMK A01 T00710008  RH  064%=      5-min Rain = 0
KVP1 100242Z 23009KT 07/01 A301 RMK A01 T00710008  RH  064%=      5-min Rain = 0
KVP1 100243Z 23009KT 07/01 A301 RMK A01 T00710008  RH  064%=      5-min Rain = 0
KVP1 100244Z 23009KT 07/01 A301 RMK A01 T00710008  RH  064%=      5-min Rain = 0
KVP1 100245Z 23009KT 07/01 A301 RMK A01 T00720009  RH  065%=      5-min Rain = 0
KVP1 100246Z 23009KT 07/01 A301 RMK A01 T00710009  RH  065%=      5-min Rain = 0
KVP1 100247Z 22009KT 07/01 A301 RMK A01 T00720010  RH  065%=      5-min Rain = 0
KVP1 100248Z 23009KT 07/01 A301 RMK A01 T00730012  RH  065%=      5-min Rain = 0
KVP1 100249Z 23009KT 07/01 A301 RMK A01 T00730013  RH  065%=      5-min Rain = 0
KVP1 100250Z 23009KT 07/01 A301 RMK A01 T00740013  RH  065%=      5-min Rain = 0
KVP1 100251Z 22009KT 08/02 A301 RMK A01 T00750015  RH  066%=      5-min Rain = 0
KVP1 100252Z 22009KT 08/02 A301 RMK A01 T00760016  RH  066%=      5-min Rain = 0
KVP1 100253Z 23009KT 08/02 A301 RMK A01 T00770016  RH  066%=      5-min Rain = 0
KVP1 100254Z 22009KT 08/02 A301 RMK A01 T00780017  RH  066%=      5-min Rain = 0
KVP1 100255Z 22009KT 08/02 A301 RMK A01 T00780018  RH  066%=      5-min Rain = 0
KVP1 100256Z 22010KT 08/02 A301 RMK A01 T00800020  RH  066%=      5-min Rain = 0
KVP1 100257Z 22009KT 08/02 A301 RMK A01 T00810020  RH  065%=      5-min Rain = 0
KVP1 100258Z 22009KT 08/02 A301 RMK A01 T00820021  RH  065%=      5-min Rain = 0
KVP1 100259Z 22009KT 08/02 A301 RMK A01 T00820021  RH  066%=      5-min Rain = 0
KVP1 100300Z 22009KT 08/02 A301 RMK A01 T00820022  RH  066%=      5-min Rain = 0
KVP1 100301Z 22009KT 08/02 A301 RMK A01 T00830022  RH  066%=      5-min Rain = 0
KVP1 100302Z 22009KT 08/02 A301 RMK A01 T00830023  RH  066%=      5-min Rain = 0
KVP1 100303Z 22009KT 08/02 A301 RMK A01 T00830022  RH  066%=      5-min Rain = 0
KVP1 100304Z 22009KT 08/02 A301 RMK A01 T00820022  RH  066%=      5-min Rain = 0
KVP1 100305Z 22009KT 08/02 A301 RMK A01 T00820023  RH  066%=      5-min Rain = 0
KVP1 100306Z 22009KT 08/02 A301 RMK A01 T00820022  RH  066%=      5-min Rain = 0
KVP1 100307Z 22009KT 08/02 A301 RMK A01 T00810022  RH  066%=      5-min Rain = 0
KVP1 100308Z 22009KT 08/02 A3009 RMK A01 T00800022  RH  067%=      5-min Rain = 0
KVP1 100309Z 22009KT 08/02 A3009 RMK A01 T00800022  RH  067%=      5-min Rain = 0
KVP1 100310Z 22009KT 08/02 A3009 RMK A01 T00800023  RH  067%=      5-min Rain = 0
KVP1 100311Z 22009KT 08/02 A301 RMK A01 T00800022  RH  067%=      5-min Rain = 0
KVP1 100312Z 23009KT 08/02 A301 RMK A01 T00790022  RH  067%=      5-min Rain = 0
KVP1 100313Z 23009KT 08/02 A301 RMK A01 T00780022  RH  068%=      5-min Rain = 0
KVP1 100314Z 23009KT 08/02 A301 RMK A01 T00780022  RH  068%=      5-min Rain = 0
KVP1 100315Z 23009KT 08/02 A301 RMK A01 T00770021  RH  068%=      5-min Rain = 0
KVP1 100316Z 24009KT 08/02 A301 RMK A01 T00760020  RH  068%=      5-min Rain = 0
KVP1 100317Z 24009KT 08/02 A301 RMK A01 T00750020  RH  068%=      5-min Rain = 0
KVP1 100318Z 24008KT 07/02 A301 RMK A01 T00740020  RH  069%=      5-min Rain = 0
KVP1 100319Z 24008KT 07/02 A301 RMK A01 T00730019  RH  069%=      5-min Rain = 0
KVP1 100320Z 24008KT 07/02 A301 RMK A01 T00720018  RH  069%=      5-min Rain = 0
KVP1 100321Z 24008KT 07/02 A301 RMK A01 T00710017  RH  069%=      5-min Rain = 0
KVP1 100322Z 25008KT 07/02 A301 RMK A01 T00700016  RH  069%=      5-min Rain = 0
KVP1 100323Z 24008KT 07/02 A301 RMK A01 T00680015  RH  069%=      5-min Rain = 0
KVP1 100324Z 24007KT 07/02 A301 RMK A01 T00670015  RH  070%=      5-min Rain = 0
KVP1 100325Z 24007KT 07/02 A301 RMK A01 T00660015  RH  070%=      5-min Rain = 0
KVP1 100326Z 25007KT 06/01 A301 RMK A01 T00640014  RH  070%=      5-min Rain = 0
KVP1 100327Z 24008KT 06/01 A301 RMK A01 T00630014  RH  071%=      5-min Rain = 0
KVP1 100328Z 24008KT 06/01 A301 RMK A01 T00620013  RH  071%=      5-min Rain = 0
KVP1 100329Z 24008KT 06/01 A301 RMK A01 T00610014  RH  072%=      5-min Rain = 0
KVP1 100330Z 25009KT 06/01 A301 RMK A01 T00610014  RH  072%=      5-min Rain = 0
KVP1 100331Z 24008KT 06/01 A301 RMK A01 T00600014  RH  072%=      5-min Rain = 0
KVP1 100332Z 24008KT 06/01 A301 RMK A01 T00600014  RH  072%=      5-min Rain = 0
KVP1 100333Z 24008KT 06/01 A301 RMK A01 T00600014  RH  072%=      5-min Rain = 0
KVP1 100334Z 24008KT 06/01 A301 RMK A01 T00600014  RH  072%=      5-min Rain = 0
KVP1 100335Z 24009KT 06/01 A301 RMK A01 T00600014  RH  072%=      5-min Rain = 0
KVP1 100336Z 24008KT 06/01 A301 RMK A01 T00600014  RH  072%=      5-min Rain = 0
KVP1 100337Z 24008KT 06/01 A301 RMK A01 T00600014  RH  072%=      5-min Rain = 0
KVP1 100338Z 24008KT 06/01 A301 RMK A01 T00590014  RH  072%=      5-min Rain = 0
KVP1 100339Z 24008KT 06/01 A301 RMK A01 T00590013  RH  073%=      5-min Rain = 0
KVP1 100340Z 24008KT 06/01 A301 RMK A01 T00580013  RH  073%=      5-min Rain = 0
KVP1 100341Z 24008KT 06/01 A301 RMK A01 T00580013  RH  073%=      5-min Rain = 0
KVP1 100342Z 23008KT 06/01 A301 RMK A01 T00570012  RH  073%=      5-min Rain = 0
KVP1 100343Z 23008KT 06/01 A301 RMK A01 T00560012  RH  073%=      5-min Rain = 0
KVP1 100344Z 23008KT 06/01 A301 RMK A01 T00560012  RH  073%=      5-min Rain = 0
KVP1 100345Z 23008KT 06/01 A301 RMK A01 T00550012  RH  074%=      5-min Rain = 0
KVP1 100346Z 23008KT 06/01 A301 RMK A01 T00550012  RH  074%=      5-min Rain = 0
KVP1 100347Z 23008KT 06/01 A301 RMK A01 T00550012  RH  074%=      5-min Rain = 0
KVP1 100348Z 23008KT 05/01 A301 RMK A01 T00540012  RH  074%=      5-min Rain = 0
KVP1 100349Z 23008KT 05/01 A301 RMK A01 T00540012  RH  074%=      5-min Rain = 0
KVP1 100350Z 23008KT 05/01 A301 RMK A01 T00540012  RH  074%=      5-min Rain = 0
KVP1 100351Z 23008KT 05/01 A301 RMK A01 T00540013  RH  074%=      5-min Rain = 0
KVP1 100352Z 23008KT 05/01 A301 RMK A01 T00540013  RH  075%=      5-min Rain = 0
KVP1 100353Z 23008KT 06/01 A301 RMK A01 T00550014  RH  075%=      5-min Rain = 0
KVP1 100354Z 23008KT 06/01 A301 RMK A01 T00550013  RH  075%=      5-min Rain = 0
KVP1 100355Z 23009KT 06/01 A301 RMK A01 T00550014  RH  075%=      5-min Rain = 0
KVP1 100356Z 23008KT 06/01 A301 RMK A01 T00550014  RH  075%=      5-min Rain = 0
KVP1 100357Z 23009KT 06/02 A301 RMK A01 T00560015  RH  075%=      5-min Rain = 0
KVP1 100358Z 23009KT 06/02 A301 RMK A01 T00560015  RH  075%=      5-min Rain = 0
KVP1 100359Z 23009KT 06/02 A301 RMK A01 T00570016  RH  075%=      5-min Rain = 0
KVP1 100400Z 23009KT 06/02 A301 RMK A01 T00580016  RH  075%=      5-min Rain = 0
KVP1 100401Z 23009KT 06/02 A301 RMK A01 T00580017  RH  075%=      5-min Rain = 0
KVP1 100402Z 23009KT 06/02 A301 RMK A01 T00590018  RH  075%=      5-min Rain = 0
KVP1 100403Z 23009KT 06/02 A301 RMK A01 T00600018  RH  074%=      5-min Rain = 0
KVP1 100404Z 23009KT 06/02 A301 RMK A01 T00610018  RH  074%=      5-min Rain = 0
KVP1 100405Z 23009KT 06/02 A301 RMK A01 T00610018  RH  074%=      5-min Rain = 0
KVP1 100406Z 23009KT 06/02 A301 RMK A01 T00610018  RH  074%=      5-min Rain = 0
KVP1 100407Z 23009KT 06/02 A301 RMK A01 T00620018  RH  074%=      5-min Rain = 0
KVP1 100408Z 23009KT 06/02 A301 RMK A01 T00620018  RH  073%=      5-min Rain = 0
KVP1 100409Z 23009KT 06/02 A301 RMK A01 T00620017  RH  073%=      5-min Rain = 0
KVP1 100410Z 23009KT 06/02 A301 RMK A01 T00620017  RH  073%=      5-min Rain = 0
KVP1 100411Z 24009KT 06/02 A301 RMK A01 T00620017  RH  073%=      5-min Rain = 0
KVP1 100412Z 23009KT 06/02 A301 RMK A01 T00620017  RH  073%=      5-min Rain = 0
KVP1 100413Z 23009KT 06/02 A301 RMK A01 T00610016  RH  073%=      5-min Rain = 0
KVP1 100414Z 23009KT 06/02 A301 RMK A01 T00610016  RH  073%=      5-min Rain = 0
KVP1 100415Z 23009KT 06/02 A301 RMK A01 T00610016  RH  073%=      5-min Rain = 0
KVP1 100416Z 23009KT 06/02 A301 RMK A01 T00600016  RH  073%=      5-min Rain = 0
KVP1 100417Z 23009KT 06/02 A301 RMK A01 T00600016  RH  073%=      5-min Rain = 0
KVP1 100418Z 23008KT 06/02 A301 RMK A01 T00610016  RH  073%=      5-min Rain = 0
KVP1 100419Z 23009KT 06/02 A301 RMK A01 T00600016  RH  073%=      5-min Rain = 0
KVP1 100420Z 23008KT 06/02 A301 RMK A01 T00590016  RH  074%=      5-min Rain = 0
KVP1 100421Z 22008KT 06/02 A301 RMK A01 T00590016  RH  074%=      5-min Rain = 0
KVP1 100422Z 23008KT 06/02 A301 RMK A01 T00580016  RH  074%=      5-min Rain = 0
KVP1 100423Z 23008KT 06/02 A301 RMK A01 T00580016  RH  074%=      5-min Rain = 0
KVP1 100424Z 23008KT 06/02 A301 RMK A01 T00580016  RH  075%=      5-min Rain = 0
KVP1 100425Z 23008KT 06/02 A301 RMK A01 T00570016  RH  075%=      5-min Rain = 0
KVP1 100426Z 23009KT 06/02 A301 RMK A01 T00570016  RH  075%=      5-min Rain = 0
KVP1 100427Z 23009KT 06/02 A301 RMK A01 T00570016  RH  075%=      5-min Rain = 0
KVP1 100428Z 23009KT 06/02 A301 RMK A01 T00560016  RH  075%=      5-min Rain = 0
KVP1 100429Z 23009KT 06/02 A301 RMK A01 T00560016  RH  075%=      5-min Rain = 0
KVP1 100430Z 22009KT 06/02 A301 RMK A01 T00550016  RH  076%=      5-min Rain = 0
KVP1 100431Z 22009KT 06/02 A301 RMK A01 T00550016  RH  076%=      5-min Rain = 0
KVP1 100432Z 22010KT 06/02 A301 RMK A01 T00550016  RH  076%=      5-min Rain = 0
KVP1 100433Z 22010KT 05/02 A301 RMK A01 T00540016  RH  076%=      5-min Rain = 0
KVP1 100434Z 22010KT 05/02 A301 RMK A01 T00540016  RH  076%=      5-min Rain = 0
KVP1 100435Z 22010KT 05/02 A3009 RMK A01 T00530016  RH  077%=      5-min Rain = 0
KVP1 100436Z 22010KT 05/02 A3009 RMK A01 T00540016  RH  077%=      5-min Rain = 0
KVP1 100437Z 22010KT 05/02 A3009 RMK A01 T00540017  RH  077%=      5-min Rain = 0
KVP1 100438Z 22010KT 05/02 A3009 RMK A01 T00540017  RH  077%=      5-min Rain = 0
KVP1 100439Z 22010KT 06/02 A3009 RMK A01 T00550018  RH  077%=      5-min Rain = 0
KVP1 100440Z 22010KT 06/02 A3009 RMK A01 T00550018  RH  077%=      5-min Rain = 0
KVP1 100441Z 22010KT 06/02 A3009 RMK A01 T00560019  RH  077%=      5-min Rain = 0
KVP1 100442Z 22010KT 06/02 A3009 RMK A01 T00570019  RH  077%=      5-min Rain = 0
KVP1 100443Z 22010KT 06/02 A3009 RMK A01 T00570020  RH  077%=      5-min Rain = 0
KVP1 100444Z 22009KT 06/02 A3009 RMK A01 T00570020  RH  077%=      5-min Rain = 0
KVP1 100445Z 22009KT 06/02 A3009 RMK A01 T00580020  RH  077%=      5-min Rain = 0
KVP1 100446Z 22010KT 06/02 A3009 RMK A01 T00570020  RH  077%=      5-min Rain = 0
KVP1 100447Z 22010KT 06/02 A3009 RMK A01 T00570020  RH  077%=      5-min Rain = 0
KVP1 100448Z 22010KT 06/02 A3009 RMK A01 T00570020  RH  077%=      5-min Rain = 0
KVP1 100449Z 23010KT 06/02 A3009 RMK A01 T00570020  RH  077%=      5-min Rain = 0
KVP1 100450Z 23010KT 06/02 A3009 RMK A01 T00570020  RH  077%=      5-min Rain = 0
KVP1 100451Z 23010KT 06/02 A3009 RMK A01 T00570020  RH  077%=      5-min Rain = 0
KVP1 100452Z 23009KT 06/02 A3009 RMK A01 T00570020  RH  077%=      5-min Rain = 0
KVP1 100453Z 23009KT 06/02 A3009 RMK A01 T00570021  RH  078%=      5-min Rain = 0
KVP1 100454Z 23009KT 06/02 A3009 RMK A01 T00570021  RH  078%=      5-min Rain = 0
KVP1 100455Z 23009KT 06/02 A3009 RMK A01 T00570022  RH  078%=      5-min Rain = 0
KVP1 100456Z 23009KT 06/02 A3009 RMK A01 T00580022  RH  078%=      5-min Rain = 0
KVP1 100457Z 23009KT 06/02 A3009 RMK A01 T00590023  RH  078%=      5-min Rain = 0
KVP1 100458Z 23009KT 06/02 A3009 RMK A01 T00590023  RH  077%=      5-min Rain = 0
KVP1 100459Z 23009KT 06/02 A3009 RMK A01 T00600023  RH  078%=      5-min Rain = 0
KVP1 100500Z 22009KT 06/02 A3009 RMK A01 T00610024  RH  077%=      5-min Rain = 0
KVP1 100501Z 22009KT 06/02 A3009 RMK A01 T00610024  RH  077%=      5-min Rain = 0
KVP1 100502Z 22009KT 06/02 A3009 RMK A01 T00610024  RH  077%=      5-min Rain = 0
KVP1 100503Z 23009KT 06/02 A3009 RMK A01 T00610024  RH  077%=      5-min Rain = 0
KVP1 100504Z 23009KT 06/02 A3009 RMK A01 T00610024  RH  077%=      5-min Rain = 0
KVP1 100505Z 23009KT 06/02 A3009 RMK A01 T00610024  RH  077%=      5-min Rain = 0
KVP1 100506Z 23009KT 06/02 A3009 RMK A01 T00610024  RH  077%=      5-min Rain = 0
KVP1 100507Z 23009KT 06/02 A3009 RMK A01 T00610024  RH  077%=      5-min Rain = 0
KVP1 100508Z 23009KT 06/03 A3009 RMK A01 T00610025  RH  077%=      5-min Rain = 0
KVP1 100509Z 22008KT 06/02 A3009 RMK A01 T00600024  RH  078%=      5-min Rain = 0
KVP1 100510Z 23009KT 06/02 A3009 RMK A01 T00600024  RH  078%=      5-min Rain = 0
KVP1 100511Z 23009KT 06/02 A3009 RMK A01 T00590024  RH  078%=      5-min Rain = 0
KVP1 100512Z 23009KT 06/02 A3009 RMK A01 T00590024  RH  078%=      5-min Rain = 0
KVP1 100513Z 23009KT 06/02 A3009 RMK A01 T00590024  RH  078%=      5-min Rain = 0
KVP1 100514Z 23009KT 06/02 A3009 RMK A01 T00590024  RH  078%=      5-min Rain = 0
KVP1 100515Z 23009KT 06/02 A3009 RMK A01 T00590024  RH  078%=      5-min Rain = 0
KVP1 100516Z 23010KT 06/02 A3009 RMK A01 T00590024  RH  078%=      5-min Rain = 0
KVP1 100517Z 23009KT 06/02 A3009 RMK A01 T00590024  RH  078%=      5-min Rain = 0
KVP1 100518Z 23009KT 06/02 A3009 RMK A01 T00590024  RH  078%=      5-min Rain = 0
KVP1 100519Z 23009KT 06/02 A3009 RMK A01 T00590024  RH  078%=      5-min Rain = 0
KVP1 100520Z 23010KT 06/02 A3009 RMK A01 T00590024  RH  078%=      5-min Rain = 0
KVP1 100521Z 23009KT 06/02 A3009 RMK A01 T00600024  RH  078%=      5-min Rain = 0
KVP1 100522Z 23009KT 06/03 A3009 RMK A01 T00600025  RH  078%=      5-min Rain = 0
KVP1 100523Z 23008KT 06/02 A3009 RMK A01 T00600024  RH  078%=      5-min Rain = 0
KVP1 100524Z 23008KT 06/02 A3009 RMK A01 T00600024  RH  078%=      5-min Rain = 0
KVP1 100525Z 23008KT 06/02 A3009 RMK A01 T00600024  RH  078%=      5-min Rain = 0
KVP1 100526Z 23008KT 06/02 A3009 RMK A01 T00590024  RH  078%=      5-min Rain = 0
KVP1 100527Z 23008KT 06/02 A3009 RMK A01 T00590024  RH  078%=      5-min Rain = 0
KVP1 100528Z 23008KT 06/02 A3009 RMK A01 T00580024  RH  078%=      5-min Rain = 0
KVP1 100529Z 23008KT 06/02 A3009 RMK A01 T00580023  RH  079%=      5-min Rain = 0
KVP1 100530Z 23008KT 06/02 A3009 RMK A01 T00570023  RH  079%=      5-min Rain = 0
KVP1 100531Z 23008KT 06/02 A3009 RMK A01 T00570023  RH  079%=      5-min Rain = 0
KVP1 100532Z 23008KT 06/02 A3009 RMK A01 T00560022  RH  079%=      5-min Rain = 0
KVP1 100533Z 23008KT 06/02 A3009 RMK A01 T00550022  RH  079%=      5-min Rain = 0
KVP1 100534Z 23007KT 05/02 A3009 RMK A01 T00540022  RH  080%=      5-min Rain = 0
KVP1 100535Z 23008KT 05/02 A3009 RMK A01 T00530021  RH  080%=      5-min Rain = 0
KVP1 100536Z 23008KT 05/02 A3009 RMK A01 T00530022  RH  080%=      5-min Rain = 0
KVP1 100537Z 23008KT 05/02 A3009 RMK A01 T00530021  RH  080%=      5-min Rain = 0
KVP1 100538Z 23008KT 05/02 A3009 RMK A01 T00520021  RH  080%=      5-min Rain = 0
KVP1 100539Z 23007KT 05/02 A3009 RMK A01 T00510020  RH  080%=      5-min Rain = 0
KVP1 100540Z 23007KT 05/02 A3009 RMK A01 T00510020  RH  081%=      5-min Rain = 0
KVP1 100541Z 23007KT 05/02 A3009 RMK A01 T00500019  RH  081%=      5-min Rain = 0
KVP1 100542Z 23007KT 05/02 A3009 RMK A01 T00490019  RH  081%=      5-min Rain = 0
KVP1 100543Z 23007KT 05/02 A3009 RMK A01 T00480018  RH  081%=      5-min Rain = 0
KVP1 100544Z 23007KT 05/02 A3009 RMK A01 T00470018  RH  081%=      5-min Rain = 0
KVP1 100545Z 24007KT 05/02 A3009 RMK A01 T00450017  RH  082%=      5-min Rain = 0
KVP1 100546Z 24008KT 04/02 A3009 RMK A01 T00440017  RH  082%=      5-min Rain = 0
KVP1 100547Z 24008KT 04/02 A3009 RMK A01 T00440017  RH  083%=      5-min Rain = 0
KVP1 100548Z 24008KT 04/02 A3009 RMK A01 T00440018  RH  083%=      5-min Rain = 0
KVP1 100549Z 24008KT 05/02 A3009 RMK A01 T00460018  RH  083%=      5-min Rain = 0
KVP1 100550Z 24008KT 05/02 A3009 RMK A01 T00470019  RH  082%=      5-min Rain = 0
KVP1 100551Z 24008KT 05/02 A3009 RMK A01 T00480019  RH  082%=      5-min Rain = 0
KVP1 100552Z 24009KT 05/02 A3009 RMK A01 T00490020  RH  081%=      5-min Rain = 0
KVP1 100553Z 24008KT 05/02 A3009 RMK A01 T00500020  RH  081%=      5-min Rain = 0
KVP1 100554Z 24008KT 05/02 A3009 RMK A01 T00510020  RH  081%=      5-min Rain = 0
KVP1 100555Z 24008KT 05/02 A3009 RMK A01 T00510020  RH  081%=      5-min Rain = 0
KVP1 100556Z 24008KT 05/02 A3009 RMK A01 T00500020  RH  081%=      5-min Rain = 0
KVP1 100557Z 24009KT 05/02 A3009 RMK A01 T00500020  RH  081%=      5-min Rain = 0
KVP1 100558Z 24009KT 05/02 A3009 RMK A01 T00500020  RH  081%=      5-min Rain = 0
KVP1 100559Z 24009KT 05/02 A3009 RMK A01 T00500020  RH  081%=      5-min Rain = 0

Page generated in 0.0821 seconds.